GFSNE_700_rhum_000.txt.gz
RH
21 19 18 20 19 16 15 15 14 9 9 9 10 11 13 12 9 6 6 9 13 15 16 19 19 19 19 17 15 13 12 10 11 18 11 23 38 78
20 20 23 20 18 17 16 18 17 16 12 10 12 11 8 3 2 3 6 10 16 23 38 31 21 16 14 13 11 9 9 12 27 90 86 84 84 84
24 25 23 20 18 18 18 17 17 17 16 11 9 4 2 3 5 8 13 30 56 78 52 42 47 33 21 16 16 19 23 42 98 96 92 88 88 88
26 24 22 20 20 19 18 19 18 12 6 4 3 5 10 14 16 24 33 46 67 67 62 50 46 43 40 42 46 46 60 51 46 42 99 95 95 89
27 24 22 22 20 20 20 17 10 6 6 14 15 17 20 26 35 41 56 51 51 51 58 57 57 62 67 69 64 61 59 58 57 63 97 98 98 93
25 25 24 23 22 21 17 9 7 11 19 24 29 36 40 43 55 54 48 47 44 57 68 75 80 83 82 85 78 74 71 67 65 64 64 52 47 49
25 25 24 23 22 16 9 8 14 21 27 44 61 51 50 46 46 45 49 63 62 80 88 81 83 78 75 78 80 78 75 71 70 70 71 70 70 54
24 24 24 23 17 10 8 17 27 35 44 52 42 38 40 43 53 68 72 74 59 76 87 71 90 76 81 85 84 87 87 84 78 76 67 64 68 66
27 26 25 19 10 8 15 20 26 40 54 49 41 42 55 70 73 78 81 80 74 79 95 75 82 69 83 92 94 97 98 90 81 74 63 58 58 54
28 27 20 11 9 16 18 22 32 37 38 37 58 70 73 81 92 94 91 87 79 83 99 84 81 73 73 71 82 86 89 89 72 54 46 45 48 51
28 21 11 7 17 23 27 29 32 34 47 68 74 78 78 84 96 100 98 88 73 77 96 86 79 76 75 76 82 79 72 69 60 44 41 46 55 63
22 11 8 18 23 27 32 34 35 57 63 64 73 81 88 92 99 99 89 68 83 75 94 88 82 94 76 96 100 95 72 66 65 66 67 70 76 93
10 7 14 23 27 30 38 46 69 71 73 78 79 84 86 86 88 85 81 87 92 88 99 100 89 94 99 87 99 96 92 86 81 92 96 95 95 95
7 11 23 26 30 38 55 76 76 76 79 83 84 85 82 84 75 74 94 99 100 100 96 99 95 97 94 94 94 90 96 97 96 97 96 98 98 96
11 21 28 30 38 60 81 82 84 86 86 85 84 85 89 88 93 88 94 95 96 97 96 94 96 97 98 97 93 95 87 93 95 94 95 96 95 96
17 26 31 38 68 86 85 91 93 93 92 91 90 90 92 92 96 94 89 88 84 92 99 95 96 99 96 98 98 97 96 93 90 98 98 98 96 94
25 29 36 59 83 86 89 94 94 93 94 95 93 90 89 92 95 96 96 95 94 86 88 98 96 100 99 97 96 96 96 98 98 97 97 100 97 96
28 35 48 83 86 84 89 92 96 94 95 94 95 93 88 90 90 95 98 96 93 90 89 89 93 98 97 94 86 86 95 96 97 95 96 96 99 98
34 42 76 86 85 94 95 93 90 95 97 97 97 96 91 92 94 93 94 91 92 94 88 92 100 94 84 79 89 96 91 92 96 97 96 98 99 100
42 65 85 87 94 94 94 94 96 96 95 96 99 100 100 93 95 95 96 92 88 91 93 96 100 97 82 86 88 92 95 94 94 96 97 97 97 100
51 86 88 94 95 95 97 100 100 96 94 98 100 100 100 96 96 97 96 97 95 96 94 96 95 94 96 99 94 86 94 96 96 94 96 94 76 90
77 89 96 96 96 97 100 100 99 100 100 100 100 100 99 100 97 95 96 91 93 96 98 94 95 96 93 89 88 88 93 96 96 95 94 83 92 95
86 93 95 96 95 97 97 100 100 100 100 99 99 100 99 97 99 99 98 95 96 98 96 96 97 94 89 88 88 91 96 95 95 96 98 96 97 96

GFSNE_700_rhum_003.txt.gz
RH
25 25 21 19 19 17 14 12 11 11 13 11 9 9 9 9 6 3 4 7 10 12 14 14 13 11 12 53 36 43 49 48 33 24 25 23 23 21
25 20 20 20 19 16 15 15 15 15 10 10 9 10 9 5 5 9 13 19 21 23 27 35 67 64 41 41 84 94 95 93 92 50 61 76 54 46
20 20 22 20 19 17 17 19 19 18 14 8 10 8 5 6 10 21 30 32 30 28 30 33 38 46 51 57 42 56 60 64 100 100 100 100 100 98
21 22 23 21 20 20 22 22 21 19 16 13 8 5 8 15 20 21 22 24 30 39 51 59 59 63 66 66 56 55 88 100 99 89 88 81 100 88
22 22 21 20 21 24 24 23 21 17 10 6 5 11 18 20 18 20 23 35 51 58 65 73 77 82 84 86 86 78 73 69 61 55 49 45 48 68
23 22 22 22 25 26 25 22 16 9 8 16 20 21 24 22 23 26 41 49 54 63 66 71 78 83 85 86 88 85 78 74 71 67 64 62 58 56
22 23 22 25 27 26 21 13 7 10 18 24 32 31 27 25 41 49 52 55 56 69 67 67 72 71 70 73 82 91 97 88 80 77 75 70 72 69
21 22 24 26 25 20 11 6 18 27 28 34 33 31 39 60 57 59 62 64 49 66 62 60 78 67 77 78 82 92 93 89 82 83 82 75 67 88
22 22 24 22 17 8 4 14 20 28 41 39 39 62 68 68 67 64 66 67 54 47 62 69 75 70 82 82 94 96 89 80 74 76 68 58 55 51
21 22 19 13 5 4 11 20 22 32 38 53 73 71 74 74 79 78 74 73 60 52 95 71 77 76 83 100 99 99 88 80 72 70 67 54 42 39
18 15 8 3 5 18 23 22 29 43 64 74 79 80 77 80 86 82 84 73 42 69 95 78 76 77 92 98 96 95 96 93 73 62 56 53 53 54
8 3 4 8 18 25 25 34 49 70 66 65 72 78 82 85 92 92 81 73 90 73 94 80 82 91 65 95 97 98 98 98 100 96 86 86 90 90
2 5 10 17 24 27 38 64 77 70 71 74 75 79 83 84 88 93 100 99 95 92 98 88 86 92 96 75 87 95 96 89 94 98 98 97 96 96
7 10 16 23 28 38 73 81 77 77 78 80 83 82 78 85 92 93 97 100 100 99 94 92 90 96 84 80 85 82 91 96 95 94 95 96 98 98
10 16 24 27 38 73 86 83 83 86 86 85 83 82 84 89 92 89 93 95 99 98 97 92 90 93 97 96 95 90 90 84 97 96 97 97 98 96
13 22 27 37 67 87 84 87 93 90 87 84 84 86 88 88 90 91 85 85 84 86 99 95 92 93 84 94 96 86 94 94 93 97 96 96 97 96
19 26 34 54 84 86 92 97 92 91 90 92 89 86 87 87 90 91 90 86 89 83 80 96 98 95 95 94 80 88 87 87 96 96 95 96 97 97
25 31 43 82 84 88 89 90 94 91 94 93 92 93 90 90 90 95 96 95 91 89 86 84 82 81 89 88 90 74 83 88 96 97 97 97 94 75
28 38 73 83 89 92 92 94 93 95 96 96 97 98 94 93 99 97 96 94 91 92 95 88 88 82 75 74 78 93 90 83 92 98 99 97 96 91
39 63 84 90 92 92 96 94 93 95 97 97 97 100 98 96 95 99 100 97 92 89 96 98 92 89 83 80 77 92 96 92 92 97 97 97 97 100
52 84 88 90 91 92 96 96 96 96 97 98 100 100 99 98 98 100 100 100 99 96 92 90 87 88 85 86 87 89 96 97 97 96 96 98 94 97
80 89 90 90 91 92 94 95 98 99 98 99 99 100 100 100 100 100 100 98 95 90 93 91 87 89 87 86 87 91 92 96 97 99 98 90 92 96
88 88 88 91 92 94 93 96 98 99 100 98 100 100 100 100 100 100 100 99 92 90 90 92 92 90 86 86 85 89 94 95 87 88 96 97 96 96

GFSNE_700_rhum_006.txt.gz
RH
21 25 26 21 19 18 14 12 11 13 14 12 10 10 10 10 9 7 6 4 6 11 14 16 16 16 15 15 14 13 13 50 87 92 79 95 99 100
24 25 20 19 18 13 12 12 12 12 9 9 10 12 12 10 7 6 8 12 14 16 17 19 24 28 30 30 29 25 20 20 22 60 80 86 80 77
25 20 19 16 13 13 13 13 12 11 8 7 11 12 10 6 6 12 23 23 16 17 28 43 48 47 46 48 52 51 53 48 42 62 92 89 83 86
20 19 15 14 14 14 14 13 13 16 16 10 10 8 5 7 14 24 24 20 21 36 43 50 50 49 52 58 61 62 62 64 62 69 100 96 95 93
19 14 14 14 15 15 13 15 18 16 14 9 5 4 8 14 23 25 21 28 46 46 52 60 55 57 57 64 70 70 70 73 74 70 66 64 60 58
14 14 15 15 14 13 16 17 15 10 5 4 9 12 17 26 29 27 42 47 49 55 59 55 49 49 55 67 67 67 69 70 70 75 74 72 66 63
14 15 15 13 14 15 14 11 5 3 6 19 24 22 26 30 42 56 52 51 49 62 57 37 39 55 66 70 71 72 74 70 70 76 76 74 71 69
14 14 12 12 12 8 3 3 4 11 22 26 26 33 41 62 62 59 63 55 43 61 59 29 69 61 75 75 83 75 74 76 76 75 74 71 69 70
12 11 11 7 2 2 2 5 13 22 29 31 40 64 71 71 73 64 64 67 63 60 52 47 71 67 80 97 84 81 87 88 88 87 80 75 71 68
10 8 2 1 3 5 7 14 21 26 39 61 78 77 80 82 84 78 73 67 65 68 90 60 69 70 84 92 92 98 100 99 97 96 94 86 70 62
3 1 4 6 6 9 15 21 23 42 70 75 78 82 82 85 87 80 78 82 71 70 95 69 69 69 80 96 92 92 97 100 98 99 100 97 92 88
2 6 7 7 10 17 23 26 39 72 70 69 75 84 86 84 90 96 95 91 90 70 96 72 72 81 56 78 88 87 79 92 96 98 99 100 99 94
7 8 9 10 17 24 29 48 74 72 71 75 78 82 83 87 91 100 100 99 92 87 94 89 73 83 86 64 60 75 78 79 90 96 97 96 98 100
8 8 10 14 22 28 48 76 74 72 75 78 82 84 83 86 92 98 97 98 96 96 88 92 79 83 80 74 70 62 66 80 94 95 96 92 96 99
8 10 13 21 27 44 75 74 75 81 81 80 80 85 84 85 89 88 89 89 89 96 97 90 89 84 86 86 80 69 73 74 97 96 95 96 96 98
10 12 21 27 41 76 78 81 85 84 82 82 83 85 84 84 89 95 87 90 89 88 99 97 91 90 89 96 93 83 80 86 93 98 95 98 96 95
12 19 26 36 72 76 83 87 87 85 86 89 89 86 86 86 90 98 95 90 92 87 80 85 95 97 99 98 92 87 77 89 96 96 90 89 97 95
17 25 32 66 76 80 80 83 88 87 89 91 93 94 93 93 93 94 97 94 90 90 89 86 81 76 78 80 92 82 80 94 96 96 98 91 94 93
24 30 56 76 80 80 82 85 85 88 88 90 95 99 96 94 98 96 96 94 89 91 94 91 90 89 74 64 69 95 88 88 90 96 96 99 96 96
30 46 77 81 82 84 86 88 89 89 92 96 99 100 100 99 97 98 97 95 93 90 88 95 97 93 94 84 65 76 99 88 91 94 95 100 97 100
40 76 81 81 83 85 89 91 92 92 96 99 100 100 100 99 97 100 98 98 100 97 90 94 94 94 94 89 85 82 97 97 96 94 92 96 91 99
72 83 82 83 85 87 90 89 92 97 99 100 100 100 99 98 98 98 98 99 98 96 92 93 91 91 92 91 86 83 90 95 96 96 95 95 93 92
84 84 85 86 88 88 87 89 93 98 100 100 100 98 97 97 99 98 99 100 100 94 89 88 95 96 98 96 90 86 93 91 93 95 96 97 98 92

GFSNE_700_rhum_009.txt.gz
RH
70 55 24 25 24 20 16 12 12 14 15 11 8 6 6 7 7 6 5 4 4 4 5 7 9 9 10 12 14 18 20 22 24 23 28 33 23 27
69 28 25 24 20 15 12 12 13 13 9 7 5 7 8 8 7 5 3 6 9 14 17 14 14 20 31 36 34 33 34 34 35 34 33 34 38 56
40 24 24 20 14 12 13 13 11 7 4 4 5 6 6 4 3 4 11 15 17 17 16 23 39 41 42 46 44 44 41 42 42 45 45 45 45 46
24 25 20 13 12 12 12 9 5 6 6 3 2 2 2 3 8 15 17 20 21 31 43 44 49 47 50 49 50 49 47 48 50 52 52 55 56 55
25 19 12 12 13 11 7 6 6 4 2 2 2 2 6 13 16 19 24 25 47 46 50 56 51 52 50 42 33 36 48 54 54 52 53 53 54 56
18 12 12 13 10 6 6 4 2 2 2 3 4 10 15 17 26 31 42 53 48 53 56 57 53 55 36 47 63 63 62 60 60 64 68 68 66 64
12 12 12 9 6 5 2 2 3 4 5 9 14 16 17 28 48 60 56 53 50 60 62 49 60 44 60 68 69 66 67 74 78 82 83 84 80 77
12 12 8 7 3 2 5 6 6 7 11 17 18 21 41 64 63 60 63 62 51 58 69 47 72 49 65 70 75 74 77 87 87 89 95 96 93 79
11 7 6 2 3 6 6 7 8 11 20 23 30 62 69 70 70 66 67 71 65 64 80 56 66 53 68 74 88 85 94 98 99 99 97 96 96 96
7 6 2 5 7 7 7 7 9 17 25 44 71 72 74 76 80 80 76 70 63 71 90 68 67 62 61 74 93 95 100 98 86 88 97 100 99 95
6 2 5 7 7 7 8 10 16 24 48 73 72 76 80 84 88 84 78 76 62 64 86 84 66 58 56 67 92 99 88 78 78 84 91 98 97 91
2 5 7 8 7 8 12 19 23 48 66 67 70 76 79 80 84 87 92 86 84 63 87 76 68 76 45 53 71 75 78 76 73 70 76 94 98 97
4 7 8 8 8 13 21 29 53 66 67 70 72 75 77 83 86 90 100 100 93 80 97 93 72 77 81 53 54 62 67 64 63 64 76 100 97 97
6 8 9 9 12 21 29 56 69 70 70 71 75 82 84 85 84 90 94 99 99 99 91 100 86 86 80 67 62 57 66 68 67 67 88 97 95 97
9 10 11 12 18 27 54 68 73 75 76 78 79 81 84 85 86 89 84 88 90 98 98 100 92 87 90 85 78 69 75 55 68 76 89 91 97 97
11 12 13 17 26 52 70 75 79 83 84 83 85 86 85 87 91 96 90 92 85 84 95 100 96 95 91 93 94 82 83 74 72 87 95 93 96 97
12 14 15 25 50 69 73 78 84 84 84 85 86 89 90 92 94 99 98 92 90 88 82 89 90 95 96 98 90 89 81 69 81 95 94 88 95 96
16 15 24 44 69 73 76 80 86 85 86 88 92 94 92 93 93 92 97 97 95 94 91 92 84 76 77 79 98 92 71 75 90 91 96 92 88 96
18 23 37 69 72 76 78 80 82 86 89 92 96 99 95 92 95 93 96 99 95 96 94 99 90 91 82 69 73 100 82 84 84 78 94 97 89 95
22 32 68 74 76 78 81 84 86 89 92 98 98 98 98 96 93 97 98 99 96 94 91 100 100 97 96 91 74 73 97 90 84 85 81 85 97 97
28 64 76 76 78 80 84 88 90 93 98 100 100 98 98 98 94 98 99 100 100 100 96 96 99 99 99 94 81 76 93 98 100 98 90 89 93 88
55 77 78 78 81 83 87 89 91 97 98 100 100 97 97 97 96 97 99 98 99 100 96 97 98 93 92 94 87 87 90 88 98 96 96 95 87 78
77 81 81 83 84 87 89 90 94 97 100 100 100 97 97 96 98 100 97 98 100 95 98 95 95 96 95 100 98 94 95 96 92 94 96 95 97 99

GFSNE_700_rhum_012.txt.gz
RH
66 67 66 65 30 25 23 17 12 13 16 15 10 7 5 5 4 3 3 2 2 2 3 5 7 8 9 9 9 10 12 24 32 32 34 35 38 49
70 70 68 40 26 24 16 12 13 14 13 9 6 5 4 4 3 2 2 3 5 8 10 13 13 18 25 29 31 33 33 35 38 39 39 41 66 88
75 68 48 26 24 15 12 14 13 9 6 5 4 4 3 3 3 4 6 10 11 12 16 20 41 41 38 41 46 40 41 39 38 41 42 40 41 43
70 52 26 24 14 13 14 12 7 5 4 4 4 4 4 4 6 10 13 13 16 30 43 47 48 49 51 49 43 43 39 35 28 26 32 41 44 47
51 27 24 14 13 14 11 6 5 3 4 4 4 5 6 8 13 15 17 29 47 49 50 58 54 52 52 49 47 37 30 33 46 50 55 58 58 57
27 22 14 14 14 10 6 5 3 5 5 5 5 7 10 15 21 36 45 49 47 50 54 61 52 57 55 55 48 48 52 53 56 66 68 71 72 74
19 14 15 13 9 7 4 4 5 5 5 6 8 10 16 30 58 57 51 50 50 56 53 53 55 53 58 61 64 66 63 61 71 72 74 79 80 83
14 15 12 8 7 4 4 5 6 6 7 10 14 19 38 63 64 63 58 60 52 61 57 49 66 59 62 63 65 70 63 72 78 82 83 82 82 82
15 12 8 7 5 4 5 6 7 8 12 18 23 50 61 66 68 68 65 64 60 64 71 55 65 56 61 62 72 80 74 86 92 90 91 89 82 83
11 9 7 6 5 5 6 7 7 9 18 28 56 64 69 72 77 75 70 69 62 66 75 78 59 51 54 58 66 81 87 96 93 93 90 75 76 74
9 8 6 5 5 7 9 8 8 17 30 62 68 72 76 76 79 77 77 73 65 60 73 94 65 53 44 47 61 72 90 99 96 91 80 79 74 71
8 6 5 5 8 10 10 9 14 30 57 61 68 71 74 75 80 85 82 76 77 59 86 87 73 83 40 44 53 66 70 76 79 78 79 74 71 71
6 4 5 8 10 10 11 18 32 59 63 65 67 72 73 77 80 88 94 96 92 82 98 100 84 87 87 53 50 63 68 70 73 70 72 71 74 88
4 6 8 10 11 12 19 35 63 66 66 68 69 68 67 74 81 90 93 99 100 97 89 96 97 96 87 74 62 58 68 73 70 64 63 62 71 99
7 8 10 12 13 19 36 66 66 66 68 67 68 74 81 85 89 90 94 95 91 98 98 100 100 98 94 84 74 66 68 61 65 63 61 62 86 93
8 10 13 13 16 33 64 69 69 69 70 72 78 86 88 88 90 92 88 89 83 82 93 99 98 99 90 88 88 84 86 67 58 60 63 79 83 97
8 11 15 16 33 63 66 70 72 74 77 83 90 91 90 89 90 93 92 88 87 86 84 92 95 94 94 99 92 90 84 68 65 67 79 78 79 96
10 15 16 28 63 64 65 70 78 81 84 91 95 95 91 89 88 89 96 96 89 88 91 96 90 78 75 79 97 93 83 70 65 74 82 82 81 92
15 17 23 62 67 66 69 73 79 85 88 95 96 96 93 92 96 94 93 92 88 90 93 98 91 94 81 64 78 99 92 78 76 78 82 83 86 86
18 20 51 70 68 69 73 78 86 88 92 96 96 97 98 96 94 94 95 97 95 92 90 100 100 99 98 91 76 78 100 92 87 80 80 76 87 97
20 38 72 72 73 76 82 88 91 92 93 96 99 99 97 96 94 96 97 100 99 95 91 94 98 100 99 91 86 85 96 98 99 97 85 75 81 86
29 73 77 77 80 85 87 87 90 93 96 99 100 98 97 98 97 97 100 96 91 94 92 93 96 97 93 95 94 94 88 88 95 95 95 94 89 82
68 83 84 85 87 88 85 83 85 92 96 95 98 100 97 96 99 100 92 89 92 88 93 92 88 96 97 96 98 96 94 88 80 81 96 95 96 97

GFSNE_700_rhum_015.txt.gz
RH
67 69 69 68 70 65 51 26 23 15 14 17 17 14 11 8 7 6 5 3 2 2 3 4 5 7 7 8 8 10 13 20 26 26 27 30 41 39
69 71 71 73 68 59 28 22 14 15 18 16 12 9 8 6 5 4 2 2 3 4 6 8 9 11 14 15 21 31 36 37 36 37 41 46 53 78
72 73 75 74 62 30 22 15 16 16 14 11 8 6 6 4 3 3 3 4 5 9 11 19 30 37 37 39 39 41 41 42 41 39 39 38 38 43
76 78 81 63 31 21 15 16 15 11 8 8 6 5 4 3 3 4 6 9 12 28 42 43 43 40 47 47 45 43 43 39 37 38 33 31 32 34
79 86 65 31 20 15 16 14 9 7 6 6 5 4 4 4 5 7 11 18 42 47 46 49 46 49 53 51 49 46 42 42 43 38 38 52 54 52
92 70 30 19 16 16 13 9 7 6 6 5 4 4 5 7 10 15 29 45 42 46 46 54 50 56 55 54 55 54 55 51 46 45 53 58 64 67
67 28 17 16 15 11 9 8 7 5 4 4 5 6 7 13 29 44 45 42 42 48 46 49 48 52 52 57 62 66 68 63 56 57 60 67 71 73
26 16 16 13 10 8 7 6 5 4 5 7 7 8 17 45 50 49 48 45 40 51 50 47 57 51 50 55 64 70 70 69 60 59 70 74 79 76
17 16 13 10 8 7 5 4 4 6 8 8 11 24 48 55 51 51 51 53 55 61 61 44 60 53 53 52 64 67 68 73 65 64 72 77 78 73
15 12 10 8 6 4 4 4 6 8 10 15 32 54 58 57 60 61 60 56 58 65 72 51 59 50 52 52 64 73 78 82 73 66 70 76 76 74
12 9 8 5 4 4 5 7 9 10 17 42 59 62 64 67 68 62 67 60 55 59 74 68 62 56 51 50 62 69 73 75 81 81 78 75 75 74
9 7 4 4 4 6 7 9 9 15 41 56 60 65 67 68 72 78 78 73 75 59 88 72 71 76 49 47 50 63 70 77 81 78 77 74 72 70
6 4 4 5 6 8 10 11 15 40 53 51 58 62 62 70 78 90 94 91 82 77 92 89 82 88 90 60 52 62 68 72 74 70 77 78 79 78
4 4 5 6 7 10 12 17 43 53 52 58 62 63 68 74 80 84 88 90 93 90 91 100 94 95 89 74 64 63 70 75 74 71 74 76 77 75
4 5 6 7 10 13 16 43 57 54 58 63 64 69 73 76 80 82 90 91 89 95 95 98 96 93 91 88 81 72 72 72 78 70 66 64 62 61
5 7 7 9 13 15 42 59 58 59 64 66 70 76 79 82 84 85 81 82 76 78 92 98 97 100 97 96 91 82 86 81 73 72 66 59 59 63
7 8 10 14 16 38 62 64 64 67 71 75 77 79 82 82 84 88 87 83 82 86 84 96 100 100 100 100 88 95 95 84 75 67 66 62 64 75
10 10 12 16 30 63 63 64 70 70 76 78 81 84 84 87 84 86 90 92 91 93 92 98 96 88 87 87 97 89 76 69 67 70 75 76 65 75
12 12 16 24 67 68 67 69 72 78 76 80 85 89 92 88 89 91 92 93 92 96 95 98 94 98 87 72 82 99 94 84 81 78 80 81 78 79
13 15 21 64 72 73 76 79 81 78 80 86 89 93 97 94 92 92 95 96 96 92 91 100 99 98 98 93 78 80 98 92 91 83 82 81 88 96
17 22 54 75 76 80 83 84 79 77 83 86 94 96 96 95 93 95 95 98 99 99 96 97 98 98 100 94 84 82 92 98 98 98 92 90 84 88
24 52 80 79 82 81 81 73 76 83 87 87 88 87 88 92 92 89 92 89 90 94 91 91 93 95 97 96 89 88 86 88 94 96 97 98 91 81
58 83 83 84 79 69 66 76 82 82 81 80 79 80 83 86 88 88 89 90 85 81 89 88 86 94 98 96 96 96 91 90 85 85 98 98 98 99

GFSNE_700_rhum_018.txt.gz
RH
65 66 65 70 70 68 68 68 67 50 24 16 16 18 17 14 12 10 8 7 6 4 3 2 2 2 3 4 5 6 6 9 9 10 12 21 28 27
71 70 68 70 74 73 73 73 53 25 17 17 18 16 13 10 8 7 6 4 3 2 2 3 4 6 8 9 14 24 28 30 32 31 32 33 38 47
74 72 73 80 78 76 80 58 26 17 18 19 15 11 9 7 6 4 3 3 3 4 5 7 11 22 28 33 34 34 35 37 38 38 37 37 38 40
75 74 85 87 81 84 63 27 17 18 18 15 11 8 6 5 3 3 3 4 5 7 12 29 37 37 37 38 38 39 40 39 39 39 38 38 38 36
83 84 94 87 89 73 26 17 18 15 12 9 8 5 3 3 3 4 4 5 12 32 41 40 42 42 43 43 44 44 43 41 41 37 36 36 38 38
90 98 92 94 79 25 17 18 15 11 8 6 4 3 3 4 4 4 7 25 35 40 41 39 44 42 43 46 50 47 46 49 45 43 44 44 45 47
98 97 99 65 22 18 18 14 10 8 5 3 3 3 4 5 5 14 33 34 32 40 40 39 45 45 52 54 54 54 57 56 56 51 51 50 51 52
98 99 37 18 18 16 13 9 6 4 3 4 4 5 6 6 23 38 34 32 27 40 36 36 44 39 49 48 50 56 58 61 67 60 61 59 58 60
81 25 17 18 16 12 8 5 3 4 5 6 6 7 8 32 41 35 39 38 34 43 50 41 53 44 51 54 58 61 66 69 71 59 58 60 58 58
20 18 18 15 10 7 5 3 4 5 5 6 7 12 36 44 41 42 41 40 43 55 73 52 57 52 56 60 67 66 69 76 81 72 66 56 57 58
19 17 13 9 6 4 3 4 5 6 7 9 18 47 50 50 55 46 51 53 50 54 76 73 61 57 55 53 60 66 70 74 76 74 69 64 59 56
16 11 8 6 4 4 4 5 5 7 9 22 52 55 57 58 57 62 68 66 68 52 77 68 62 72 45 48 52 64 68 74 76 73 69 65 61 59
10 7 6 4 4 4 5 6 7 9 18 46 50 54 58 59 67 80 88 82 76 75 92 87 68 80 83 63 59 70 75 79 77 69 75 76 68 65
7 6 5 4 5 6 7 8 11 16 47 50 52 58 62 70 77 84 86 86 86 90 89 94 89 91 88 77 70 71 80 84 79 74 75 74 76 74
7 6 5 5 6 8 9 12 17 50 50 52 59 68 69 71 76 79 83 86 82 95 98 97 98 96 93 88 85 75 79 73 85 78 75 70 66 68
6 6 7 8 9 10 13 18 53 53 52 58 66 67 68 74 80 86 82 83 79 79 91 99 95 94 90 91 90 80 92 87 86 87 77 67 67 67
7 8 9 11 12 15 20 59 62 58 62 69 68 68 74 79 85 91 90 88 86 82 78 90 99 99 97 98 92 96 98 87 83 80 77 68 70 74
10 12 13 13 16 22 63 67 67 66 69 69 74 77 78 83 84 90 93 90 86 85 86 92 89 82 80 82 97 91 83 77 79 79 84 79 64 75
16 15 14 17 24 69 68 69 73 73 69 73 77 80 81 83 88 88 87 85 83 87 92 98 90 93 86 73 80 98 93 93 89 80 80 80 75 74
18 16 18 26 72 73 75 78 76 71 74 79 79 80 80 83 88 86 86 87 85 78 77 95 98 97 94 93 81 87 98 92 85 78 74 77 80 88
17 20 36 76 78 80 80 73 68 74 74 74 76 82 85 87 92 92 88 93 91 90 81 86 96 97 99 96 86 85 91 98 97 96 88 81 77 76
25 61 78 80 79 71 65 70 79 75 75 75 78 83 88 93 94 94 94 90 88 85 79 79 83 93 97 98 95 93 87 85 96 97 98 96 86 72
72 74 75 68 60 63 73 78 73 69 69 74 80 87 90 88 90 87 82 82 82 81 79 77 82 96 98 98 98 96 93 94 91 87 96 97 95 90

GFSNE_700_rhum_021.txt.gz
RH
96 99 97 79 72 71 71 70 70 68 64 64 54 23 17 19 20 17 13 10 8 5 3 2 2 2 2 2 3 4 5 6 8 12 17 21 21 20
100 100 97 76 71 75 75 75 69 73 68 62 29 18 20 19 15 11 9 6 3 2 2 2 2 2 4 6 8 13 21 25 27 27 28 28 28 29
100 100 90 74 76 77 78 76 79 79 74 37 18 20 19 13 10 7 4 2 2 2 3 3 4 9 16 22 26 29 30 29 29 32 32 32 32 33
100 100 94 88 78 86 85 91 85 86 37 19 21 18 12 9 6 3 2 3 3 4 5 10 22 28 27 26 26 26 27 29 32 34 36 38 37 35
100 98 96 80 93 97 98 92 88 30 19 21 17 12 8 4 3 3 3 4 4 8 25 31 31 28 26 30 30 30 32 33 36 38 38 38 37 38
99 94 87 92 99 99 98 78 22 19 19 15 10 7 3 3 3 3 4 5 12 29 31 28 29 32 36 36 32 34 38 41 43 44 42 39 37 39
96 91 94 98 98 96 42 19 20 18 13 9 6 3 3 3 4 5 5 15 25 26 30 28 30 36 43 45 46 46 45 49 49 44 42 41 39 39
96 98 98 98 76 23 18 19 16 12 8 5 3 3 4 5 5 6 21 25 18 28 31 30 43 45 48 50 54 55 60 59 53 49 46 48 46 42
99 96 88 30 19 19 17 15 10 8 5 4 4 5 5 6 7 22 30 28 30 33 47 31 50 46 54 54 61 66 65 63 61 57 56 59 59 49
88 32 22 19 18 17 13 10 7 5 4 4 6 7 8 10 30 29 27 28 32 51 64 42 57 52 53 52 59 67 70 72 71 67 66 70 66 56
24 19 19 18 16 11 9 7 5 5 5 6 7 8 15 38 38 33 39 40 46 50 61 71 61 54 54 47 52 58 69 74 76 72 74 78 70 61
20 18 16 13 11 8 7 6 5 5 6 8 11 22 47 45 48 49 52 57 61 52 68 75 68 70 51 45 44 56 69 80 88 87 84 76 69 65
18 14 12 10 8 7 6 6 6 6 7 10 22 49 49 52 57 66 72 73 73 74 86 94 77 75 74 58 51 63 74 83 88 84 87 88 82 73
14 11 9 8 8 7 6 7 8 9 11 19 50 49 55 64 68 73 77 83 84 85 91 98 88 85 82 72 66 67 77 83 85 81 82 82 83 82
10 9 9 8 8 7 8 10 11 14 25 54 51 59 67 67 71 76 81 86 80 86 96 100 99 96 92 86 78 72 79 76 90 88 83 79 78 84
9 9 9 9 10 12 13 13 16 35 58 55 60 68 68 73 80 83 78 77 67 70 86 96 96 95 90 90 90 81 92 90 89 91 82 74 75 75
10 11 12 14 15 14 15 21 51 65 66 71 73 70 76 76 79 81 81 75 73 72 68 82 94 98 98 98 96 98 97 94 92 86 85 77 78 86
15 16 17 16 14 16 28 71 70 73 77 76 77 78 76 74 72 78 76 77 76 80 81 85 85 84 84 84 97 90 86 80 85 84 86 77 62 72
15 14 13 13 21 53 69 70 76 78 73 75 79 77 73 77 79 80 82 84 82 82 84 93 90 91 86 80 76 97 97 89 88 79 79 81 67 64
8 10 18 44 65 68 72 71 68 68 77 78 74 76 77 78 80 75 79 81 78 74 77 93 99 94 95 94 85 79 98 94 90 78 75 76 76 73
24 45 57 61 64 65 60 63 71 73 70 70 72 77 83 84 84 81 80 89 92 86 77 81 93 92 97 91 82 81 86 100 98 97 90 82 74 69
44 48 52 53 53 60 69 72 74 68 68 72 77 81 86 89 87 85 89 85 80 82 81 78 79 90 98 97 94 91 86 88 97 97 98 95 88 70
41 43 46 55 67 72 72 71 66 66 67 72 76 81 81 78 78 78 74 69 72 73 79 78 77 91 97 97 98 96 96 94 95 84 93 97 95 92

GFSNE_700_rhum_027.txt.gz
RH
98 98 95 100 99 100 97 100 99 92 95 97 96 92 80 79 79 78 78 71 41 21 22 20 14 9 5 4 4 3 3 2 2 2 3 5 8 10
97 99 100 99 96 100 100 99 100 99 100 100 99 98 95 88 88 82 74 41 21 22 19 14 10 6 4 4 4 3 2 3 5 8 10 10 10 11
100 99 100 98 98 99 100 99 100 99 99 99 99 98 99 97 92 70 28 20 21 17 12 8 5 4 4 3 3 3 4 8 10 9 10 12 13 13
92 100 100 100 99 100 99 99 99 100 98 96 98 98 97 95 49 21 20 20 15 10 6 4 4 4 3 3 5 9 11 10 11 13 14 15 16 16
93 100 99 100 99 100 99 100 99 98 97 98 97 98 93 32 19 20 17 12 9 6 4 4 4 4 5 12 16 15 15 16 16 18 20 22 24 27
99 100 100 100 100 99 99 98 97 97 97 98 95 91 23 18 18 16 12 9 6 4 4 4 4 10 22 21 21 21 21 24 26 28 31 33 34 36
100 100 100 98 98 98 98 96 96 97 97 96 52 19 18 16 12 9 8 6 5 5 5 7 18 26 34 33 32 36 37 36 36 40 43 44 44 40
99 99 99 100 99 99 97 97 97 92 22 19 19 17 13 10 8 7 6 6 5 6 9 16 31 34 38 42 46 44 41 46 50 50 53 52 47 42
98 99 100 98 98 97 95 48 21 20 19 17 14 11 9 8 7 7 6 6 6 14 27 24 43 40 44 48 51 50 54 61 62 63 60 56 49 44
95 98 96 98 82 40 23 22 20 17 14 11 10 9 8 7 7 7 7 7 13 36 53 30 51 42 40 48 50 57 64 65 68 66 64 60 58 57
95 82 32 23 23 22 20 18 15 12 10 9 9 8 8 8 9 9 13 33 38 47 60 47 53 35 35 38 47 52 57 58 60 61 63 64 65 66
24 24 23 21 19 16 15 12 10 9 9 9 10 10 10 11 14 29 47 46 51 47 63 48 44 44 31 37 42 49 58 68 75 76 73 75 77 74
22 19 17 14 10 7 6 7 7 8 9 9 10 11 16 35 56 56 60 59 55 62 71 62 51 55 50 40 33 45 52 61 68 70 74 75 77 80
11 7 4 3 3 4 5 6 7 7 8 10 21 43 52 54 59 62 66 64 65 69 73 74 67 74 67 61 54 50 64 62 68 71 73 74 79 82
3 2 2 3 4 4 4 5 6 10 21 35 43 51 58 62 65 65 67 64 68 80 84 86 78 76 72 68 66 59 64 63 84 82 82 76 73 74
2 3 3 3 4 5 8 14 22 30 37 44 50 53 57 61 62 58 61 63 58 63 81 86 83 76 68 74 74 63 85 96 97 83 75 71 74 84
3 3 4 6 9 14 20 26 33 38 42 46 47 49 53 55 61 63 64 66 64 58 59 75 73 68 68 71 68 70 83 82 80 72 72 72 77 82
4 5 8 12 17 24 31 34 38 42 46 48 49 50 53 57 59 64 64 62 55 56 55 60 65 63 55 51 71 72 79 71 66 71 76 73 68 86
7 10 12 18 26 31 35 41 47 49 50 50 51 53 55 57 53 54 57 55 52 52 58 74 72 57 50 36 52 94 90 84 83 77 84 78 69 74
12 14 21 28 30 37 47 54 58 57 54 52 54 56 54 51 54 57 56 54 54 56 62 79 70 63 64 56 56 73 98 95 79 71 73 70 78 84
17 24 26 30 41 52 55 59 64 65 61 56 56 58 54 52 60 56 54 60 66 72 74 73 51 73 77 78 78 76 84 98 97 92 79 73 78 78
24 26 32 47 52 54 59 67 72 72 68 62 61 61 57 62 62 55 56 62 71 80 74 39 42 59 62 72 87 86 80 77 98 97 98 97 90 67
26 33 47 49 52 62 67 71 75 77 73 66 63 60 60 69 65 56 61 71 83 72 36 34 58 53 56 76 95 92 92 86 84 82 92 96 90 89

GFSNE_700_rhum_033.txt.gz
RH
89 96 94 95 100 97 92 99 100 100 99 99 99 96 98 100 100 93 89 95 99 100 100 100 99 91 89 79 73 67 52 30 23 22 20 17 13 10
79 89 94 98 100 99 99 100 99 100 98 100 100 100 100 99 99 100 99 98 95 99 99 99 98 98 95 84 80 59 26 21 19 17 14 12 10 8
83 87 95 100 100 100 100 100 99 100 98 98 99 100 100 99 98 98 97 90 88 94 95 99 98 98 98 94 64 27 21 19 15 12 10 7 6 6
90 91 98 100 93 98 98 100 100 100 99 98 100 100 99 98 98 96 92 88 87 94 99 100 98 94 69 31 21 19 15 12 10 9 8 6 6 6
87 99 99 99 97 100 90 100 98 100 99 99 98 99 98 98 99 98 98 100 95 93 87 50 22 20 18 17 15 12 10 9 8 7 6 7 9 11
61 82 94 98 100 87 99 100 98 100 99 99 98 97 97 100 99 95 94 82 37 22 20 18 16 13 11 10 10 9 8 7 7 8 12 15 17 19
47 80 97 100 98 96 99 100 100 99 98 99 99 98 96 93 93 62 29 20 16 14 12 11 10 9 9 8 8 8 8 12 16 20 23 28 32 33
89 96 99 99 95 88 97 96 99 100 100 98 94 95 79 24 21 16 11 7 5 7 5 7 7 7 7 11 20 25 29 33 36 39 40 37 35 34
99 100 98 99 94 98 95 100 100 99 99 91 41 21 16 9 4 4 4 5 5 7 6 7 12 16 28 37 42 42 39 40 40 39 37 38 39 40
98 100 98 98 100 100 100 100 97 48 24 19 10 4 2 2 3 4 4 6 8 16 23 24 33 36 40 42 40 36 41 45 45 44 42 41 42 43
98 96 98 100 98 95 54 27 23 16 6 2 2 3 4 5 6 9 14 20 25 32 42 37 43 40 40 36 37 43 48 49 52 56 57 56 54 53
100 98 86 51 26 24 19 12 4 2 2 3 5 8 10 14 18 23 29 34 36 40 43 40 45 42 31 36 38 42 43 50 54 52 53 56 58 56
26 24 22 18 12 5 2 2 2 3 5 9 13 17 20 24 28 32 35 37 40 44 50 45 49 50 43 34 34 38 41 46 45 38 38 42 47 56
5 4 3 2 2 2 2 3 4 8 13 17 21 24 28 30 32 34 37 40 44 52 59 58 51 52 42 39 37 42 52 55 46 40 31 33 46 64
2 2 2 2 2 2 3 5 9 14 19 23 26 30 33 35 36 38 42 45 49 55 58 61 57 54 50 47 47 49 55 40 40 42 35 44 66 70
2 2 2 2 3 4 6 9 15 20 25 29 33 38 42 42 43 43 46 48 46 50 56 60 58 57 53 54 56 59 49 34 42 45 55 71 76 76
2 2 3 3 4 6 9 14 21 26 30 38 43 46 49 49 48 49 49 46 46 53 54 56 59 62 61 64 66 51 32 41 49 46 63 66 69 90
3 3 3 4 6 8 13 21 28 32 39 45 49 54 56 56 54 54 52 49 50 57 56 54 56 58 63 67 61 29 44 46 42 46 72 77 71 72
3 4 5 7 10 13 21 28 31 40 49 53 58 60 61 62 61 58 56 54 56 61 59 60 63 73 67 61 45 39 60 52 42 49 81 91 76 70
3 6 9 11 14 21 28 31 44 51 52 61 63 64 65 66 66 63 62 59 62 64 62 65 66 75 79 70 38 32 89 65 54 58 72 79 80 78
4 9 13 16 24 30 33 46 51 52 62 65 67 69 73 71 73 71 67 65 68 70 66 68 66 73 83 72 38 33 58 63 61 66 74 82 79 78
8 14 18 26 30 33 45 48 50 66 68 69 71 75 77 77 81 82 76 69 74 76 75 74 64 66 76 52 35 42 49 51 54 74 91 95 90 72
14 18 25 29 36 44 43 58 69 72 72 73 78 80 79 82 90 88 86 82 81 81 82 70 56 71 66 45 56 54 53 48 49 59 83 96 96 93

GFSNE_700_rhum_036.txt.gz
RH
66 77 84 82 85 85 94 99 99 99 100 100 97 100 100 100 99 100 99 99 100 99 99 100 100 97 94 87 93 92 96 96 96 92 82 77 53 35
60 65 72 85 92 92 97 99 89 100 100 100 100 99 99 99 99 99 99 98 100 99 99 100 98 93 84 84 90 92 94 97 99 97 88 51 30 22
86 90 73 75 88 94 99 99 99 100 99 99 100 99 98 99 99 99 98 99 100 100 100 100 94 87 85 85 84 86 86 79 66 51 28 21 20 18
52 55 72 88 87 97 100 100 100 98 100 94 99 99 98 96 99 99 99 98 98 96 97 91 86 86 86 60 31 24 23 22 21 20 17 15 13 12
80 49 51 54 80 98 100 100 100 100 92 98 97 99 99 99 99 100 100 99 96 94 95 84 62 30 28 26 21 18 17 16 14 12 11 10 9 9
62 50 43 50 55 99 99 97 99 99 91 99 100 100 100 98 96 96 95 90 84 54 31 23 18 15 12 9 8 8 8 8 8 8 8 8 8 9
48 46 58 69 90 76 100 100 100 89 95 100 100 100 95 92 90 84 60 28 20 12 5 4 2 3 4 5 5 6 6 6 8 10 14 19 24 28
50 63 100 100 93 92 89 81 100 99 100 100 98 94 86 53 23 19 7 2 2 3 3 4 4 5 6 8 12 16 22 28 32 32 33 34 31 28
84 92 100 100 100 100 100 100 100 100 99 83 43 23 14 6 2 2 3 4 6 8 10 12 13 18 21 28 33 35 35 34 33 35 35 34 32 31
96 99 96 96 100 99 97 97 93 59 28 21 10 3 2 3 5 8 10 12 16 19 19 22 27 31 34 38 37 36 32 31 36 40 39 36 34 34
97 100 100 99 100 98 72 32 24 19 9 3 2 3 7 10 13 16 18 21 24 29 28 25 32 29 36 40 39 37 41 45 49 47 46 45 44 45
45 49 43 27 25 24 20 14 6 2 2 2 5 9 13 17 20 23 25 27 28 31 33 30 36 33 28 38 42 41 42 41 43 46 49 51 46 39
8 8 7 4 3 2 2 2 2 2 3 6 11 16 19 22 27 29 30 31 33 34 34 31 35 35 30 27 32 37 37 40 43 49 54 44 34 37
2 2 2 2 2 2 2 2 2 4 7 12 18 21 24 28 31 35 36 37 36 38 40 36 34 38 37 34 32 34 43 46 48 47 34 28 31 33
2 3 3 2 2 2 2 3 4 6 11 18 24 28 33 36 41 44 44 43 42 43 42 41 43 44 45 41 37 39 48 46 39 27 29 31 30 36
3 3 3 3 3 3 3 4 6 10 17 25 30 36 41 45 50 51 51 49 47 47 46 49 53 50 48 48 44 44 55 49 32 33 44 33 32 53
3 3 3 3 3 4 4 6 9 16 25 32 38 47 50 54 57 56 56 55 53 51 50 54 61 58 57 54 50 58 58 53 37 39 44 27 35 60
3 3 3 3 4 5 7 10 17 28 34 40 50 51 55 58 60 61 61 61 59 57 54 55 59 62 62 55 61 51 56 52 30 31 42 29 26 47
3 4 4 5 8 11 14 19 29 34 42 54 55 57 62 64 66 68 69 69 67 64 61 62 66 72 66 58 53 55 64 55 32 29 55 49 34 45
4 4 5 9 12 16 22 31 34 43 54 53 55 67 70 69 71 72 75 75 75 74 68 68 75 78 77 73 54 45 78 54 51 64 67 52 42 52
5 6 8 13 17 24 29 31 40 49 48 57 71 73 76 75 75 77 77 80 81 81 76 75 83 85 81 79 58 53 59 52 67 69 62 47 40 45
9 12 14 17 22 27 34 41 44 53 72 74 76 79 83 83 82 82 84 82 85 86 81 80 82 82 77 62 57 59 38 44 48 48 58 53 55 58
15 17 20 25 32 37 40 49 69 75 78 78 81 86 88 88 93 92 90 92 93 87 86 79 80 78 59 62 66 44 40 40 39 42 48 64 71 87

GFSNE_700_rhum_039.txt.gz
RH
48 55 60 62 64 70 77 94 98 99 100 95 100 98 99 99 100 99 100 99 99 99 99 99 99 96 99 97 99 99 100 94 80 78 80 81 82 87
54 58 66 73 85 97 95 93 93 99 91 100 98 100 97 98 100 99 99 99 98 99 99 99 99 99 99 100 99 94 86 80 77 74 74 75 76 78
55 54 57 65 66 87 99 100 99 100 100 100 100 99 100 98 99 90 96 99 99 100 99 98 99 98 94 96 88 80 76 75 64 47 34 30 28 27
65 81 72 81 75 59 88 96 99 98 99 99 100 98 99 100 98 99 98 98 100 98 97 95 94 90 87 81 78 70 52 36 30 27 24 22 20 19
74 81 87 75 72 70 51 79 96 99 98 100 99 97 99 98 99 99 98 97 96 94 89 87 84 72 56 34 25 21 16 13 11 10 8 9 10 10
69 76 71 60 52 57 79 78 90 90 91 98 94 98 99 98 98 96 90 94 92 77 56 32 20 17 9 4 2 2 2 2 3 3 4 4 5 6
64 57 58 65 55 85 100 100 100 99 88 99 98 100 98 97 99 93 78 55 26 17 8 3 2 3 3 4 4 4 4 5 6 9 12 16 21 26
52 55 59 80 73 100 100 100 99 99 100 100 98 95 95 68 26 19 12 4 2 3 4 6 8 9 11 13 13 15 17 22 25 27 28 29 27 22
65 68 85 99 90 100 98 97 100 98 97 97 62 25 20 12 5 2 3 6 8 10 12 15 16 19 22 25 25 25 26 27 29 29 26 25 27 26
95 95 99 98 97 98 97 98 97 72 27 22 16 8 3 2 3 7 10 14 16 18 17 22 23 27 30 31 30 31 33 34 32 31 31 31 29 26
29 48 60 67 68 46 31 24 20 15 10 5 3 2 2 5 10 15 18 21 23 23 22 22 24 27 32 36 36 38 39 36 35 37 37 36 34 36
2 2 2 2 2 2 2 2 2 2 2 2 2 4 8 13 17 20 22 25 28 30 30 30 31 30 30 36 38 40 42 41 41 42 42 44 45 46
2 2 2 3 3 2 2 2 2 2 2 2 4 8 14 18 21 24 28 32 35 36 36 34 35 32 29 29 36 38 39 40 41 43 46 48 49 42
3 3 3 3 3 3 3 2 2 3 3 4 7 13 19 24 29 31 34 38 40 41 42 39 38 36 32 32 32 38 42 40 38 49 54 46 31 27
5 4 3 3 3 3 3 3 3 3 4 6 11 19 26 31 35 36 40 43 46 47 46 45 44 42 39 37 35 40 44 43 44 52 51 41 30 39
5 4 3 3 3 3 3 3 4 4 6 11 19 27 32 37 42 44 49 50 52 57 55 53 51 48 47 46 44 46 53 48 49 51 49 44 28 42
6 6 4 4 4 4 4 5 6 8 12 19 27 33 38 48 52 56 58 58 56 58 62 61 58 56 54 54 50 57 58 59 56 50 53 47 25 34
6 5 4 4 4 6 8 10 12 15 20 28 35 42 54 57 59 67 66 64 63 67 67 69 67 65 63 63 67 67 66 63 55 47 53 41 20 27
5 4 5 6 7 9 12 15 20 27 32 35 44 55 53 55 67 70 71 69 70 72 77 79 81 79 70 64 67 73 72 65 55 48 52 38 27 34
5 6 9 10 12 13 16 22 28 31 36 45 48 51 66 70 73 75 77 76 77 78 79 87 94 92 84 78 66 60 81 65 59 58 46 42 43 40
6 10 13 14 16 18 22 28 35 40 43 48 66 73 76 74 76 81 85 88 86 83 79 85 97 94 87 85 72 64 63 54 64 52 41 49 41 32
9 13 16 19 22 26 30 34 38 50 68 70 68 70 74 80 88 90 93 93 93 93 90 90 93 92 92 93 79 56 43 51 48 52 64 60 54 39
13 17 21 25 29 34 40 50 62 68 65 62 68 82 90 91 95 93 93 94 94 90 91 84 85 87 77 61 54 53 49 36 48 51 41 56 52 50

GFSNE_700_rhum_042.txt.gz
RH
48 47 47 47 50 51 55 64 70 97 99 89 97 100 100 96 98 99 100 99 99 98 98 99 99 97 98 99 99 98 99 99 98 93 96 94 90 78
53 57 59 60 58 58 61 62 67 80 85 81 98 100 98 98 92 99 100 99 95 98 98 98 96 98 98 99 98 98 98 96 97 98 92 82 76 71
58 67 64 65 65 68 70 66 76 78 89 96 99 100 100 99 92 100 98 98 100 100 99 100 96 98 99 99 98 96 92 87 86 81 76 68 55 42
56 60 58 66 68 72 73 90 99 79 85 94 98 97 92 99 89 96 98 99 99 99 99 100 97 96 97 96 92 85 82 76 57 38 26 20 18 17
42 46 53 64 65 62 65 68 72 91 98 100 94 98 90 95 98 98 96 98 98 99 100 99 98 92 92 78 54 29 14 6 2 2 1 2 2 2
42 46 50 60 59 56 58 54 84 94 96 99 95 94 100 100 99 99 97 97 97 100 100 94 64 32 16 6 2 2 3 3 4 4 3 3 3 3
37 42 52 57 52 54 62 73 86 94 98 97 99 100 100 97 96 97 96 93 91 64 32 14 6 2 3 5 6 8 9 10 11 11 11 12 15 18
38 38 44 50 59 74 74 87 91 99 96 99 98 94 94 92 92 67 40 25 14 7 2 3 5 7 10 13 13 14 15 16 17 18 19 20 23 24
60 62 62 64 72 74 75 82 87 91 93 94 73 44 28 24 19 12 6 3 2 4 7 10 12 15 16 18 18 17 18 20 21 22 23 25 27 25
5 16 21 34 48 65 71 62 47 38 29 22 20 15 8 4 3 2 2 5 8 12 14 18 19 21 23 23 24 25 26 27 27 29 31 30 27 26
2 2 2 2 2 2 3 3 3 3 3 3 3 2 2 2 2 5 8 13 17 20 22 24 26 30 31 31 30 30 29 29 32 32 30 29 30 30
4 4 3 3 3 3 3 3 3 2 2 2 2 2 2 3 6 11 16 20 25 29 31 31 32 32 34 35 33 32 32 31 34 35 32 33 34 32
7 6 6 6 5 4 3 3 3 3 3 2 2 3 4 6 11 18 23 28 32 34 35 34 38 39 38 39 36 36 38 43 44 43 41 40 38 37
10 9 9 7 5 4 3 3 3 3 3 3 3 4 6 10 17 24 29 35 38 43 47 43 41 43 39 39 41 40 42 45 45 46 46 45 43 47
13 12 12 11 8 5 4 4 4 4 4 4 4 6 9 17 25 32 37 43 49 53 53 50 46 46 44 44 43 46 42 46 47 49 51 50 47 47
18 12 11 9 6 4 4 4 4 5 5 6 7 10 15 23 31 37 47 54 55 64 62 59 54 51 50 52 49 49 54 48 53 57 55 54 53 46
16 10 8 6 5 5 6 6 7 8 9 10 13 18 24 32 38 46 55 56 58 67 76 78 70 64 60 60 56 58 60 58 62 64 64 61 56 48
10 7 6 5 6 8 9 10 10 12 14 18 23 28 33 39 50 56 56 63 68 72 74 79 78 74 72 68 72 68 66 67 73 74 73 65 52 45
7 6 6 7 9 11 12 14 15 18 21 25 30 37 46 49 51 67 74 72 72 73 77 81 83 83 72 66 72 80 72 78 80 74 70 63 46 43
7 6 7 10 12 15 18 20 23 27 31 35 39 44 57 70 71 74 75 75 76 78 80 91 99 97 90 85 71 71 88 77 86 74 61 50 49 47
7 8 10 13 16 20 23 27 30 34 38 46 58 67 69 64 64 71 78 86 88 86 80 86 98 97 91 89 74 67 74 81 72 55 50 53 42 32
9 11 14 18 22 27 30 34 39 45 51 56 57 59 66 77 84 84 86 84 87 87 85 85 88 89 88 82 61 48 42 48 61 63 50 48 60 46
12 15 21 26 30 33 36 40 44 49 54 59 67 73 75 77 82 81 86 88 86 66 54 46 44 46 50 63 66 58 51 42 42 42 51 77 67 62

GFSNE_700_rhum_048.txt.gz
RH
36 40 43 43 35 31 34 33 33 31 31 34 38 40 45 63 76 72 73 84 95 94 100 99 94 98 99 98 100 100 100 100 100 100 100 97 97 98
39 40 40 32 28 29 30 34 39 42 40 43 44 38 40 42 62 79 92 98 100 99 99 98 96 97 99 98 98 99 98 98 97 97 97 98 98 98
34 31 27 25 25 27 31 37 40 42 44 43 39 39 41 43 55 83 97 96 99 100 98 97 97 100 97 97 98 98 98 98 97 98 98 97 97 97
26 22 23 24 24 27 32 36 37 36 35 36 42 47 58 57 58 77 79 95 96 97 98 99 99 97 96 98 98 98 98 97 98 100 100 98 97 95
21 22 24 23 24 28 31 30 31 33 35 45 49 55 54 53 58 68 70 91 99 98 96 96 96 97 97 98 98 100 97 97 95 96 87 65 41 19
21 24 24 26 28 28 28 30 34 40 47 52 58 64 68 70 72 77 78 80 86 91 94 96 100 100 97 96 99 94 87 69 43 21 6 3 3 4
38 39 41 41 40 39 36 37 41 42 45 49 50 54 60 67 75 67 58 72 74 78 85 90 91 92 82 61 36 20 11 4 3 5 8 9 10 11
10 4 11 18 18 13 8 4 5 5 6 8 10 11 10 12 12 14 15 19 21 18 18 21 16 14 8 3 3 3 6 9 12 12 13 14 15 14
4 4 5 5 5 5 5 5 5 4 4 3 3 3 3 3 3 3 3 3 4 4 3 3 2 2 2 4 8 11 14 16 16 16 16 16 17 18
8 9 10 10 9 8 8 8 8 6 4 4 3 4 4 3 3 2 2 2 2 2 2 2 3 5 9 13 15 18 20 21 21 22 22 22 22 23
13 15 15 15 14 12 13 14 13 11 8 7 6 5 4 4 4 3 3 3 3 3 4 6 8 13 16 18 19 21 24 25 26 27 28 28 27 27
20 22 23 23 22 19 16 17 16 14 12 9 6 5 4 4 4 4 4 4 4 5 7 11 16 18 21 26 27 28 29 31 32 31 32 31 30 28
29 30 31 31 30 27 21 18 15 12 8 5 5 4 4 5 5 5 5 5 7 9 13 18 24 28 29 29 33 41 40 40 38 38 37 34 32 31
33 34 34 35 33 26 17 14 12 7 5 5 6 6 7 8 8 8 8 10 13 18 22 26 30 34 35 37 40 48 55 55 48 46 45 43 41 39
36 35 36 36 29 20 14 11 8 6 6 7 9 11 12 12 12 13 15 18 22 27 32 36 39 45 48 49 48 48 57 63 64 62 58 53 49 45
39 41 41 34 24 15 10 8 7 7 8 11 14 16 17 19 20 21 24 28 33 41 45 49 51 51 53 59 58 56 67 63 67 70 68 62 60 57
43 43 44 36 27 14 8 8 8 9 12 16 20 22 24 26 28 30 33 38 41 47 57 71 75 73 74 71 61 63 66 66 73 74 72 66 65 68
50 44 48 42 28 15 9 8 9 13 18 22 24 26 29 33 38 42 47 56 64 69 69 70 69 68 72 76 78 76 72 72 83 80 78 72 66 76
57 46 45 48 35 20 11 10 14 19 25 26 28 29 32 37 41 49 55 58 60 64 71 79 85 90 83 77 74 79 81 88 84 79 84 84 74 68
60 63 49 50 50 28 14 15 21 25 28 30 30 29 30 34 42 51 58 61 65 67 67 77 90 98 93 89 71 65 58 51 50 46 46 46 47 48
64 70 73 70 66 37 20 21 25 28 31 33 33 31 32 33 40 48 54 60 59 61 59 68 85 90 86 80 63 58 65 60 56 58 58 59 56 52
65 73 81 84 81 46 26 27 30 32 34 35 36 32 32 33 38 43 47 50 54 55 56 66 83 93 97 92 78 69 60 57 67 73 67 63 56 41
70 80 81 90 92 73 42 33 33 34 35 36 37 31 31 33 38 40 41 43 43 42 45 51 66 80 85 85 76 62 58 60 60 56 60 85 85 72

GFSNE_700_rhum_051.txt.gz
RH
25 33 38 39 41 41 32 26 26 28 29 33 32 34 35 34 36 38 43 60 77 80 97 97 96 100 100 95 97 97 96 97 94 100 98 96 98 98
42 44 42 38 33 29 24 24 28 30 29 28 28 29 34 40 40 43 46 64 60 80 91 90 95 97 97 97 98 97 96 97 98 99 99 96 99 97
49 36 30 27 23 25 25 26 29 29 25 24 28 35 41 46 51 48 48 52 56 78 88 96 96 96 97 97 97 97 97 97 97 97 97 97 100 98
25 21 20 20 23 24 24 25 27 25 22 27 32 39 43 49 51 47 53 56 67 80 87 92 94 94 96 99 98 98 95 91 95 96 96 98 95 97
19 19 20 22 24 25 26 27 26 25 27 34 35 36 39 48 52 59 64 64 76 79 83 93 95 95 93 94 97 97 94 97 99 93 93 94 96 94
27 32 39 43 44 39 38 39 36 33 32 26 21 15 12 14 11 15 26 36 30 41 58 71 85 92 93 92 94 95 93 94 92 84 70 46 25 10
41 22 8 18 28 28 24 18 11 5 4 4 4 4 4 4 4 4 4 4 5 6 10 15 18 21 30 43 44 41 31 20 13 6 4 3 4 6
4 3 4 5 5 5 6 5 5 5 7 8 8 6 5 4 4 4 4 3 3 3 3 3 3 4 4 4 4 3 3 3 4 5 8 11 13 14
4 6 7 10 11 11 11 10 11 11 12 11 9 7 6 7 7 6 6 5 4 3 3 2 2 2 2 2 2 4 6 9 12 14 16 17 17 18
11 13 14 16 17 18 17 17 17 18 18 17 15 14 13 11 8 6 5 4 4 3 3 3 3 3 4 4 7 11 15 17 19 21 22 22 23 22
17 19 21 24 26 26 26 26 24 22 21 20 18 15 11 7 5 4 4 4 4 4 4 4 5 6 8 10 14 19 22 24 26 27 28 28 28 28
25 28 30 31 32 32 32 31 29 23 20 19 13 8 6 5 4 5 5 6 6 5 6 6 8 10 14 20 24 26 26 28 30 32 34 36 36 35
32 32 32 35 34 33 34 30 23 18 16 12 9 6 5 6 7 8 8 8 8 8 8 9 12 16 20 26 32 36 37 36 34 36 37 39 40 39
33 36 37 37 37 37 32 24 18 14 12 9 8 7 8 10 10 11 12 13 14 14 15 16 18 21 24 26 31 37 44 49 52 50 47 47 47 45
36 40 43 43 42 38 32 25 17 12 10 9 9 10 12 13 13 14 16 19 22 23 24 26 29 34 40 41 40 41 45 56 60 66 68 64 58 53
38 48 49 48 46 44 35 26 17 11 9 9 10 13 16 16 17 18 20 24 30 33 33 36 38 42 51 58 59 59 63 61 64 68 70 76 77 71
43 50 53 53 46 48 41 28 19 13 10 12 15 18 20 21 21 21 22 27 35 45 52 55 53 56 58 57 52 58 59 60 69 74 71 70 72 76
42 49 54 58 58 48 48 42 28 17 15 16 19 22 24 25 25 24 25 28 37 46 53 58 60 62 61 63 69 71 68 74 81 78 76 68 68 72
40 48 56 57 63 67 62 56 39 24 20 21 23 25 28 30 28 27 29 33 40 47 56 61 66 64 55 51 55 62 72 88 78 64 56 51 48 47
41 48 57 62 67 74 78 76 49 32 26 27 28 29 31 34 32 29 30 32 36 42 48 57 68 65 59 54 46 65 84 74 70 66 65 55 47 47
41 46 56 67 72 76 82 85 62 41 38 33 31 32 34 34 32 29 30 33 35 38 40 45 52 50 46 46 44 53 73 82 80 72 60 50 47 48
40 44 58 71 77 76 82 85 75 47 34 31 32 34 34 36 31 28 30 32 35 36 38 40 44 44 45 46 50 55 58 65 70 64 64 66 57 37
58 50 70 79 75 78 81 76 56 32 28 31 36 36 37 38 30 29 31 33 34 36 39 42 49 55 59 63 63 59 59 60 62 61 64 82 76 75

GFSNE_700_rhum_054.txt.gz
RH
21 20 24 34 41 45 46 45 39 30 26 26 30 32 31 33 34 40 37 40 41 55 58 58 67 88 94 99 100 98 98 97 98 95 97 95 93 93
30 37 44 50 49 43 40 38 31 28 26 28 29 27 31 35 38 42 43 40 41 44 50 64 69 90 100 98 99 98 97 96 96 96 96 96 93 96
43 49 50 39 31 27 25 24 24 24 25 26 24 28 32 34 38 48 43 39 42 46 55 59 72 85 96 98 98 97 96 97 95 97 92 94 95 95
44 27 23 22 19 19 22 23 22 25 27 26 27 32 25 20 28 34 40 50 54 47 60 65 70 82 87 94 96 99 100 98 99 98 99 100 96 94
21 21 20 23 27 31 31 25 28 32 36 32 33 19 14 10 9 7 7 9 13 18 14 25 48 71 85 90 90 89 92 95 98 95 94 95 95 92
26 25 32 28 32 36 38 37 39 35 25 10 4 5 5 5 5 5 4 4 4 4 4 5 8 13 20 54 77 85 89 91 92 92 92 90 88 82
35 32 7 3 4 4 5 5 4 5 6 6 7 8 8 7 6 5 6 7 7 7 5 4 4 4 4 6 7 11 18 23 27 26 20 13 8 5
10 3 4 5 7 8 10 10 10 10 10 11 12 12 12 11 9 10 11 11 11 8 8 5 4 3 3 2 2 2 2 2 2 2 3 3 4 6
4 5 8 11 13 15 16 17 17 18 18 18 19 19 20 18 17 16 13 12 10 8 5 4 4 3 3 3 3 2 2 3 4 6 8 9 11 13
9 12 15 17 19 21 24 25 26 26 26 25 24 22 21 19 15 11 8 6 5 4 4 3 3 3 4 4 4 5 6 8 11 13 15 17 17 18
17 19 22 25 29 29 30 31 31 30 29 27 23 22 19 13 9 7 5 5 5 5 5 5 5 5 5 6 7 8 11 14 18 20 22 22 23 23
24 29 31 30 32 35 34 33 32 31 27 23 21 18 13 10 8 7 7 7 7 7 7 7 7 8 8 10 12 13 15 18 21 23 26 28 29 30
33 31 31 36 38 38 38 36 33 29 24 21 18 14 12 10 10 10 10 9 9 9 10 10 12 13 14 16 17 16 18 22 25 30 34 37 38 38
31 31 34 39 44 45 44 40 32 27 22 17 13 12 10 11 12 12 12 12 12 12 12 14 18 19 22 26 28 30 32 37 40 42 40 38 41 42
32 33 37 43 44 48 48 46 41 31 21 15 12 11 11 12 14 15 15 16 15 15 15 16 19 24 30 35 40 40 38 48 54 56 57 58 57 53
32 33 36 42 43 50 53 48 46 40 28 20 16 15 14 16 17 19 20 20 19 18 18 18 21 26 34 38 40 44 51 48 50 53 56 62 70 72
34 34 35 41 46 50 54 59 54 48 44 33 24 21 19 20 22 23 23 24 22 22 23 23 26 28 35 39 41 51 52 48 60 68 64 62 70 71
37 37 37 41 46 51 56 65 68 70 64 47 34 26 24 25 26 27 27 27 24 24 26 27 29 33 36 39 46 58 52 52 63 66 69 68 69 75
38 38 39 42 47 52 59 69 71 73 71 57 42 33 32 30 30 30 30 30 26 25 28 30 34 37 35 34 38 45 49 62 62 73 81 74 61 57
37 38 39 41 45 50 61 73 72 78 80 70 54 48 39 32 30 31 33 32 27 27 29 32 35 37 35 33 29 38 50 45 59 66 77 75 64 60
66 46 41 44 44 51 67 75 75 82 81 72 54 39 32 31 33 34 35 34 28 28 29 32 34 36 36 37 37 41 48 56 56 59 64 61 54 49
95 71 70 59 67 59 79 76 77 80 75 62 44 33 33 34 36 36 37 34 30 30 31 33 37 42 48 52 51 50 50 63 71 65 59 59 56 44
96 96 92 92 83 88 85 74 73 79 82 74 54 40 37 37 39 40 39 34 31 32 34 38 47 57 59 58 50 46 51 56 66 69 73 86 70 63

GFSNE_700_rhum_057.txt.gz
RH
27 26 28 27 26 30 39 60 51 45 35 24 23 30 30 26 30 35 38 40 38 36 36 40 41 48 63 66 74 97 99 95 83 92 97 97 94 84
30 33 32 34 39 45 52 50 40 37 25 24 24 28 26 27 32 35 35 38 36 34 35 41 51 54 58 66 88 99 100 100 95 94 95 96 96 94
36 40 42 47 49 44 31 27 24 25 24 20 23 25 25 31 25 22 18 10 11 25 34 32 49 55 59 68 77 86 91 100 100 99 96 97 97 96
41 46 50 35 23 22 20 20 22 23 22 23 26 27 30 28 16 8 6 5 5 4 4 5 6 10 25 56 73 79 86 92 97 98 96 92 94 96
46 39 25 22 22 28 33 36 37 30 31 33 32 26 7 6 6 6 6 6 5 5 5 4 4 4 4 7 29 71 78 83 84 88 90 92 94 94
25 23 26 26 30 24 22 25 25 20 11 5 5 6 7 8 9 9 8 6 6 7 8 9 8 6 5 4 4 5 18 58 79 83 87 90 91 90
26 31 33 26 4 4 5 6 7 8 8 9 10 11 12 13 13 12 11 10 11 12 12 12 10 9 7 5 4 3 3 4 6 15 27 36 41 39
36 37 16 4 5 6 9 12 14 14 15 16 17 18 19 20 20 20 20 19 19 16 14 12 9 6 5 4 4 3 3 3 2 2 2 2 2 2
7 3 4 6 10 13 15 17 19 21 22 23 24 24 24 24 23 23 21 18 14 10 8 6 4 4 4 3 3 3 3 3 3 3 3 4 4 5
6 8 11 14 17 19 22 25 27 28 29 30 29 28 26 23 22 18 13 10 8 7 6 6 6 5 5 4 4 4 4 5 6 7 8 9 11 12
12 16 18 21 24 27 28 28 32 33 32 31 30 26 22 20 17 13 10 9 9 10 9 9 9 7 6 6 6 6 6 7 8 9 12 14 16 18
21 24 27 30 30 29 33 36 37 36 35 32 28 22 19 17 14 12 12 13 14 14 13 13 11 10 10 10 10 10 10 11 11 11 14 19 23 25
28 32 32 30 31 36 40 41 43 44 40 34 29 22 17 14 12 12 13 14 14 14 14 14 12 12 12 12 15 14 16 18 19 19 20 22 24 26
34 34 31 30 33 38 40 41 46 48 46 41 33 25 17 14 13 13 15 16 16 17 16 16 15 14 13 15 18 20 23 27 27 29 30 31 33 35
36 33 31 31 33 38 39 41 46 51 50 46 41 32 23 19 19 20 20 21 21 20 19 19 17 16 16 16 18 22 23 33 36 36 40 46 50 52
36 35 33 33 33 36 40 42 45 49 57 58 51 45 41 35 30 26 26 28 25 25 24 21 20 18 18 18 19 24 30 31 37 38 36 38 46 52
36 36 36 35 35 37 40 44 47 50 63 66 67 66 55 42 33 30 32 31 30 26 25 24 22 20 20 20 21 27 32 35 39 40 43 39 46 56
36 36 37 37 38 39 41 44 46 48 66 68 70 71 61 49 38 38 37 34 28 28 29 28 24 21 21 23 27 29 33 40 39 36 41 38 40 60
34 35 36 38 39 39 41 43 47 51 69 70 76 79 69 55 51 46 37 30 30 32 34 31 26 24 23 23 26 29 34 38 36 34 38 41 41 54
77 49 40 44 44 42 44 48 51 59 74 73 78 81 76 61 48 37 33 33 33 34 36 33 28 27 26 28 29 32 41 43 46 46 46 47 46 50
96 93 72 76 83 61 64 60 69 66 79 74 78 77 69 58 44 38 36 38 37 38 38 33 29 29 30 32 33 39 48 63 64 54 52 52 52 54
97 96 96 96 95 82 82 76 77 86 81 74 72 80 80 72 57 47 42 39 42 41 39 34 31 32 36 43 44 44 47 52 55 57 60 65 60 47
97 96 97 96 97 97 95 96 94 92 85 80 69 82 87 85 74 56 42 43 47 43 39 34 34 38 45 51 50 47 46 46 54 64 71 91 81 74

GFSNE_700_rhum_060.txt.gz
RH
19 26 29 28 28 34 33 38 46 47 53 36 27 23 21 22 25 25 29 28 32 34 32 31 34 39 44 47 49 58 66 84 98 96 98 94 100 98
26 31 31 30 36 38 42 48 53 47 34 26 22 22 21 25 25 26 25 18 13 10 13 21 29 32 32 34 40 57 65 74 90 99 99 99 98 97
34 35 33 33 40 47 54 48 33 26 20 20 22 21 22 24 23 28 12 7 6 5 5 4 4 5 4 8 19 48 69 87 91 100 100 100 97 96
38 37 34 40 48 51 32 24 20 24 27 27 24 25 28 29 28 10 6 6 6 6 6 6 6 6 5 4 6 12 51 77 83 93 100 100 100 100
39 37 47 52 37 24 23 28 31 33 34 30 32 30 25 8 5 6 8 9 9 8 8 8 9 10 10 8 6 5 7 27 65 82 88 91 90 89
44 50 51 31 24 26 29 19 19 20 14 8 5 6 8 9 10 12 13 13 12 11 12 13 14 14 14 12 9 6 5 4 5 13 38 66 78 86
53 40 28 28 30 29 4 5 6 8 9 12 13 14 15 16 17 18 19 19 20 19 19 19 16 14 12 8 6 5 4 4 4 3 3 4 9 16
29 28 36 40 31 4 6 8 12 14 16 18 20 21 22 23 24 25 25 24 24 21 17 14 10 7 6 5 4 4 3 3 3 3 3 3 2 3
40 41 36 9 5 7 11 15 17 20 23 25 26 28 28 28 28 27 26 24 20 14 12 9 8 8 8 7 6 5 4 4 4 4 4 4 4 3
11 4 5 7 11 15 18 22 25 28 28 31 32 31 30 29 28 25 24 20 16 12 13 13 14 14 12 11 9 8 6 6 6 6 6 6 7 8
6 8 11 16 18 23 26 29 30 34 36 36 36 34 31 28 25 23 21 17 15 16 18 19 19 18 17 16 14 12 10 9 8 8 8 8 9 11
12 16 20 24 27 30 30 34 37 40 41 42 43 40 33 29 24 20 18 16 16 18 21 24 23 23 20 18 16 14 12 12 11 11 11 13 14 15
21 24 28 32 32 31 34 38 40 39 41 44 47 45 40 32 24 21 18 16 19 23 26 28 25 23 21 19 18 16 15 14 13 13 14 16 19 22
27 31 35 34 32 33 35 39 39 38 42 46 49 50 47 41 34 28 25 26 28 30 32 30 27 28 25 21 19 18 16 15 15 14 15 17 21 25
32 36 36 34 33 33 35 38 38 40 43 44 49 59 59 52 45 42 37 34 32 33 36 36 31 27 25 25 22 18 17 17 17 18 21 23 24 28
35 37 37 36 35 34 34 36 38 41 44 45 49 63 64 66 62 53 42 38 31 37 40 37 30 28 28 27 22 19 19 19 22 23 23 25 28 33
35 36 37 37 37 36 36 37 39 41 44 46 50 66 66 68 70 62 51 45 48 45 40 30 30 31 32 29 24 23 23 23 24 25 25 24 28 36
34 35 36 38 37 38 38 39 40 41 44 48 58 69 70 73 76 72 63 62 56 43 33 32 33 33 34 31 29 27 25 25 29 30 30 30 30 36
59 62 42 45 47 41 37 40 42 42 48 57 68 73 73 73 76 77 70 59 44 36 34 35 35 36 40 36 29 28 27 30 32 35 38 41 38 41
80 87 93 69 90 77 44 51 57 50 57 63 75 80 76 74 75 71 64 55 47 43 41 40 39 40 40 37 30 29 33 36 41 41 42 44 43 40
99 99 98 97 97 97 88 89 95 70 65 65 80 88 79 74 78 81 79 73 67 59 51 43 44 43 40 37 31 30 36 47 50 47 45 42 39 38
98 98 98 97 98 98 97 97 97 94 94 94 95 94 88 76 73 85 87 86 81 70 58 50 48 45 42 37 34 35 41 50 60 58 53 48 43 37
97 97 98 97 97 96 97 97 97 96 96 95 95 96 94 81 77 90 92 92 89 80 67 58 51 46 41 38 39 43 46 50 53 51 51 67 65 65

GFSNE_700_rhum_063.txt.gz
RH
19 18 19 22 27 32 32 37 65 72 50 51 49 37 30 24 23 21 25 24 27 18 10 10 19 28 32 37 29 40 48 57 66 93 99 98 98 95
22 23 25 27 31 33 35 39 42 47 54 50 32 25 21 22 21 23 24 24 15 6 5 5 4 4 6 4 4 8 22 44 62 67 72 100 100 99
32 33 36 36 36 37 39 46 47 51 38 26 22 23 23 23 22 24 23 23 8 6 6 6 6 6 6 5 5 5 6 15 37 63 78 88 85 98
34 38 39 40 40 40 47 53 44 26 24 25 29 30 26 26 29 27 16 6 6 8 8 8 7 7 9 10 11 9 7 9 20 58 69 96 100 100
38 40 40 41 40 48 55 37 25 28 31 33 34 32 30 25 15 6 7 9 11 11 12 11 11 12 14 15 14 12 10 8 8 12 33 58 76 83
42 44 47 46 51 54 31 26 32 23 22 15 11 7 6 8 9 11 14 16 18 18 20 20 20 20 19 17 14 12 10 8 6 5 6 10 20 43
48 52 54 56 51 28 28 31 5 5 7 9 12 13 15 16 18 20 22 24 24 24 24 23 20 18 15 11 8 6 5 4 4 3 3 3 3 4
56 61 60 36 29 34 37 5 6 8 13 15 18 21 23 25 27 27 27 27 26 24 22 19 14 12 10 10 10 10 9 7 5 4 4 4 3 3
56 39 34 40 45 34 4 6 11 15 18 22 26 28 30 31 31 30 29 26 24 22 18 15 13 14 16 17 17 16 14 12 10 8 6 5 4 4
40 51 50 31 7 6 10 13 18 22 28 28 32 34 34 34 32 30 26 24 22 18 16 17 18 22 24 25 25 24 23 20 17 14 11 9 7 6
13 6 5 8 11 15 19 23 29 31 32 36 39 40 41 40 35 29 26 22 21 18 16 18 21 26 30 30 30 28 25 24 21 18 16 14 12 10
7 10 13 17 21 26 30 32 32 36 39 40 40 41 44 45 41 34 27 22 19 16 16 21 25 29 32 33 30 30 28 29 26 22 20 18 16 14
11 17 22 27 31 33 33 32 35 38 40 39 40 43 46 48 46 40 30 24 20 18 21 26 32 34 34 33 34 33 31 30 28 25 22 19 17 15
19 24 28 32 35 35 33 33 36 38 39 38 41 44 46 55 59 53 44 37 32 30 31 34 36 40 40 36 33 32 34 32 28 21 20 18 16 15
25 29 33 36 37 36 34 34 34 36 37 38 42 45 47 59 63 64 63 55 44 41 42 41 45 49 45 35 35 34 33 30 25 22 21 19 18 18
29 32 35 38 38 37 36 36 36 36 37 39 43 46 51 63 67 66 67 67 62 55 50 52 55 50 38 37 38 37 38 32 26 24 23 22 20 20
31 33 35 37 38 38 39 46 78 41 38 40 42 44 54 67 72 69 71 73 67 57 58 60 53 41 37 40 40 40 40 35 32 26 24 23 25 27
32 34 35 39 57 58 88 89 64 52 39 40 41 44 57 74 78 74 75 78 76 66 61 53 43 40 43 42 44 44 42 37 31 27 26 25 27 33
47 46 76 90 92 94 93 77 83 53 38 42 45 45 61 74 83 78 75 75 72 63 56 50 50 51 54 53 47 46 43 37 32 29 30 30 30 38
94 96 96 96 95 88 95 95 96 96 57 62 82 63 67 79 89 82 75 77 80 78 74 70 67 65 62 58 56 48 42 38 33 31 33 36 38 40
98 97 96 97 98 98 98 98 97 97 95 94 96 89 94 94 95 93 85 76 81 86 88 88 81 73 70 64 61 53 46 38 36 35 38 38 39 39
98 97 98 98 98 97 97 97 97 96 96 97 96 96 96 95 96 95 93 82 85 92 93 94 90 82 76 70 63 57 46 39 43 49 51 50 46 37
98 98 97 98 97 97 97 97 97 97 96 97 96 96 96 96 96 95 95 94 95 96 95 95 93 87 81 70 63 54 43 40 47 48 50 56 50 45

GFSNE_700_rhum_066.txt.gz
RH
24 23 23 25 27 26 25 28 35 37 40 76 97 61 58 43 30 22 21 17 23 24 23 15 8 7 11 13 21 30 29 32 42 60 89 96 98 97
23 24 26 28 33 36 33 34 37 39 68 48 53 60 45 31 24 22 20 22 23 25 11 6 6 6 6 6 5 4 5 7 21 39 66 91 98 99
29 32 32 35 37 41 39 41 40 41 48 52 54 43 32 28 27 24 24 25 25 16 8 6 7 8 7 8 8 8 8 7 7 11 45 62 77 94
34 36 39 40 45 47 47 44 43 49 56 48 31 27 32 34 28 29 32 29 7 6 8 10 10 10 8 9 11 13 14 13 12 11 9 25 57 59
37 39 41 43 46 47 46 47 52 60 42 26 30 33 34 31 28 17 7 7 9 11 13 14 15 15 15 15 16 17 17 15 13 11 9 10 11 32
40 42 43 48 54 54 53 57 68 40 30 33 31 27 14 7 7 10 11 14 16 19 21 22 23 23 22 20 18 16 14 10 8 7 6 5 5 7
42 48 50 52 59 62 65 64 37 32 19 8 7 8 11 13 15 17 19 22 23 25 26 25 24 22 19 15 13 10 8 7 6 5 4 4 3 3
51 53 60 64 64 68 54 34 33 24 5 8 13 15 17 20 23 26 27 28 28 27 26 24 22 18 14 13 12 12 13 12 11 9 8 6 5 4
55 59 66 73 62 41 39 43 28 5 9 14 18 23 26 28 30 32 31 30 29 26 23 22 18 16 16 18 20 20 21 22 21 19 16 14 11 9
56 56 48 46 48 58 50 11 7 12 17 22 28 31 33 35 36 36 34 32 27 24 22 20 17 18 20 23 26 28 29 30 29 26 24 22 21 19
46 50 52 48 30 9 7 12 18 24 29 32 34 38 40 41 40 41 41 36 28 22 18 17 16 18 21 24 29 32 34 34 33 33 32 30 27 24
16 5 5 7 11 16 21 24 30 33 34 38 42 42 40 41 44 46 44 40 31 24 19 18 17 19 24 29 34 37 38 39 39 36 33 31 30 28
6 9 12 16 22 28 32 35 35 36 39 41 41 39 40 43 45 48 50 49 43 35 26 22 22 24 30 35 41 42 43 42 38 36 34 33 30 27
30 18 22 27 31 33 36 36 35 36 39 43 41 39 41 44 46 53 59 60 58 52 43 37 33 34 36 42 49 46 43 41 39 38 37 36 32 28
10 18 24 29 34 37 37 36 35 36 38 40 42 41 42 44 49 58 65 64 63 63 63 54 45 42 42 48 49 39 40 41 42 43 42 38 33 28
19 24 28 32 36 38 38 38 37 37 37 42 74 68 42 45 48 58 70 71 67 66 66 64 56 47 48 52 48 38 41 44 43 45 44 38 34 30
25 28 30 33 36 38 39 39 40 41 46 90 72 41 41 42 45 56 74 78 73 70 72 71 64 60 61 55 46 45 48 48 47 46 47 44 35 30
32 64 46 34 37 39 39 46 68 88 95 96 70 42 40 41 44 51 72 83 79 74 77 78 76 70 62 52 53 54 55 53 50 51 51 49 39 30
76 34 34 37 39 42 66 85 96 96 96 95 94 77 43 42 61 72 73 85 87 78 77 77 73 70 68 69 68 66 62 57 55 55 54 49 44 34
96 89 85 93 89 87 95 96 96 96 96 96 96 96 85 74 91 87 88 96 95 94 91 82 82 81 81 81 82 76 72 67 62 59 55 49 40 35
97 96 97 97 97 97 97 97 96 97 97 98 98 97 97 97 96 96 96 97 96 96 95 95 92 91 88 86 85 83 74 70 66 62 54 46 39 37
97 97 97 97 96 96 98 98 98 97 97 97 97 96 96 96 97 96 98 97 96 96 96 95 95 94 92 89 89 87 83 72 64 57 47 42 40 36
98 99 97 97 97 98 98 98 98 98 98 97 95 96 96 95 97 96 95 96 97 96 96 96 95 95 93 92 90 88 84 73 62 48 47 51 47 39

GFSNE_700_rhum_069.txt.gz
RH
56 32 26 25 24 27 28 30 35 37 31 85 47 55 56 100 82 61 38 23 21 21 25 25 18 8 5 5 7 14 23 19 30 35 53 78 84 86
68 60 36 31 30 32 35 35 35 42 46 55 74 92 76 63 63 38 30 25 22 23 24 24 7 6 6 7 7 6 6 5 6 14 42 61 87 76
65 70 43 36 36 38 38 40 41 47 47 64 57 52 59 58 42 29 28 27 24 25 25 10 7 7 8 9 9 9 8 8 8 8 12 35 83 100
39 38 38 39 40 41 43 44 49 52 54 56 59 62 63 36 30 33 30 29 30 26 7 7 9 11 11 11 11 11 12 13 14 12 11 12 37 65
44 46 44 42 42 42 43 50 55 57 56 56 66 67 39 33 39 34 34 28 9 7 10 12 14 16 16 16 17 17 18 18 17 15 13 12 10 16
48 46 44 41 43 47 48 56 60 61 61 70 59 36 40 38 32 15 8 8 11 14 16 19 21 23 23 23 22 21 20 18 16 13 11 9 7 6
45 43 40 39 47 54 56 61 66 68 73 57 37 29 18 10 9 10 14 17 19 22 24 25 26 26 24 22 20 17 14 11 9 8 7 7 6 5
42 37 37 45 58 63 68 69 73 75 50 38 10 7 9 13 16 20 23 26 28 29 29 27 26 25 22 19 16 14 12 12 13 14 12 10 9 7
36 37 45 57 64 70 76 78 61 43 44 19 6 11 16 21 26 29 31 32 32 31 30 27 25 23 20 18 16 17 19 20 21 22 22 20 18 16
41 48 56 61 65 64 54 48 46 46 13 7 13 19 27 30 33 35 36 36 37 34 29 25 23 20 19 19 20 22 24 27 29 31 30 29 28 26
49 48 48 50 57 62 63 51 16 8 12 18 26 31 34 37 40 41 41 42 41 36 30 25 22 19 18 19 21 25 30 34 37 37 35 35 35 33
48 47 29 15 9 8 8 11 16 22 28 32 34 37 42 43 42 42 44 45 45 42 35 29 24 20 19 20 24 29 34 41 44 43 41 39 34 32
49 16 6 8 12 16 21 26 30 33 34 37 40 43 43 42 42 44 46 48 52 54 50 42 36 32 27 26 32 38 42 47 48 45 41 39 36 34
38 8 14 14 19 23 28 32 35 36 36 38 42 44 43 43 46 62 66 51 60 62 61 60 57 51 43 40 41 41 46 51 50 44 43 42 41 40
33 8 57 57 46 43 34 36 37 36 36 38 43 44 46 52 79 89 48 52 64 69 67 64 63 62 61 53 50 47 52 55 51 45 46 46 45 45
31 10 14 21 34 37 33 38 39 38 38 39 41 45 52 94 88 50 46 46 59 75 75 71 68 68 66 61 56 50 54 52 45 47 50 50 49 47
30 14 19 25 28 32 35 38 39 39 39 39 38 54 95 95 54 46 43 42 49 70 82 80 74 73 73 69 66 64 59 50 47 51 54 55 53 52
20 21 26 28 31 32 34 36 38 39 41 55 89 96 98 97 84 45 42 43 50 68 82 88 82 77 77 74 71 63 55 55 57 61 62 62 59 57
26 26 29 52 74 83 86 71 69 73 92 96 96 96 96 96 96 88 82 74 82 91 92 93 92 87 82 79 78 75 73 73 74 73 71 70 68 62
70 75 81 81 52 40 42 58 92 94 96 96 96 96 98 98 96 97 95 95 96 94 95 95 95 93 92 88 87 96 94 91 87 82 78 72 69 65
81 88 94 96 99 97 96 96 97 96 96 96 96 97 96 92 93 96 97 95 95 96 96 95 92 93 92 91 94 96 95 92 86 82 80 75 72 67
95 98 97 96 96 96 96 97 96 95 96 97 99 98 98 94 96 97 96 96 97 97 97 96 94 92 95 94 95 96 96 91 88 85 82 74 68 59
97 97 97 97 98 97 97 97 97 97 96 97 97 97 92 92 98 98 97 96 97 96 97 96 96 95 95 94 94 94 92 92 91 90 84 76 66 55

GFSNE_700_rhum_072.txt.gz
RH
72 72 71 71 72 69 54 35 36 33 32 33 43 53 99 79 86 95 100 85 54 28 24 21 25 24 16 7 6 8 11 16 23 31 33 42 58 70
83 79 74 61 56 66 63 39 40 42 44 43 47 91 67 85 100 100 78 78 42 27 26 24 25 24 6 6 6 7 6 6 5 7 16 39 76 84
73 53 47 40 39 46 52 41 44 46 46 57 51 63 96 93 85 72 68 54 33 30 26 26 26 13 6 7 8 8 9 8 8 8 7 16 47 82
48 40 41 44 46 44 44 44 45 50 54 55 62 61 70 64 64 72 52 35 36 30 31 30 12 7 8 10 11 11 10 10 11 12 12 11 16 62
43 46 46 45 44 44 44 42 45 54 56 60 60 58 61 63 71 43 38 41 35 36 25 7 8 11 13 14 16 16 16 15 17 17 16 15 13 13
46 46 46 44 43 43 42 41 49 57 60 64 67 64 66 69 39 42 43 38 23 9 9 12 15 18 20 21 22 23 22 21 20 19 17 16 14 12
51 49 47 44 42 39 38 42 57 62 68 71 74 75 75 41 46 41 25 10 10 14 17 20 23 24 26 26 25 24 22 20 18 15 12 9 7 7
44 45 44 42 38 36 40 54 64 70 75 79 82 68 42 20 9 9 12 16 20 23 26 28 28 28 26 25 23 20 17 14 12 11 11 11 11 11
50 49 42 36 36 42 55 65 75 81 83 75 51 43 10 8 13 18 23 27 30 31 32 31 29 27 25 23 20 17 15 15 17 18 18 19 20 20
51 38 34 41 46 54 64 72 76 65 51 48 40 10 9 15 24 29 32 33 35 36 36 34 29 26 23 21 18 18 19 21 23 26 29 30 32 32
43 35 43 44 43 46 50 55 55 57 49 19 8 14 23 29 32 35 38 41 41 41 39 35 30 25 21 19 18 18 20 23 28 33 36 38 37 36
40 44 46 43 33 26 34 36 22 11 10 17 25 31 34 36 40 43 43 44 46 46 43 40 36 30 24 20 19 19 21 25 31 38 43 45 43 40
45 51 48 28 6 7 10 13 18 24 30 33 35 37 40 44 44 44 45 50 57 77 84 57 52 45 38 31 29 28 29 34 40 44 48 49 46 42
56 56 50 13 10 15 19 24 31 34 36 37 38 41 45 46 45 47 50 72 87 85 63 66 63 61 60 56 51 44 42 41 43 46 52 52 47 45
67 61 51 10 39 24 42 39 35 36 37 37 38 42 46 47 47 45 73 96 81 50 56 72 73 70 67 66 63 60 55 52 49 50 56 53 48 47
92 70 54 14 28 53 42 51 34 36 38 38 37 38 38 43 46 75 90 78 51 46 45 59 78 80 75 72 70 65 63 58 57 60 60 53 49 50
78 73 55 15 14 19 26 44 38 37 38 39 58 68 46 45 61 82 94 76 48 43 43 48 66 82 85 80 75 74 71 68 63 63 61 53 51 56
74 76 36 16 18 24 28 31 33 36 37 38 40 41 46 70 91 94 97 94 68 58 50 71 88 93 94 89 84 80 77 75 70 65 59 57 62 68
80 65 22 20 24 28 48 66 65 64 65 62 73 80 96 96 96 97 94 94 96 94 93 91 93 95 93 93 94 94 93 89 87 84 80 77 82 80
95 55 25 26 31 45 67 65 44 87 85 78 87 96 96 97 97 97 94 94 95 95 96 97 97 94 94 93 95 95 93 94 94 94 90 87 82 81
96 82 52 62 80 89 93 94 96 96 96 96 96 96 96 95 94 95 94 94 94 97 98 98 95 97 96 95 96 97 96 94 94 93 93 88 80 82
96 96 95 92 86 91 97 98 96 96 96 97 97 96 96 96 97 97 94 93 94 97 98 97 95 92 94 93 96 95 95 95 95 95 92 80 75 73
97 97 96 96 97 97 95 94 94 96 97 97 97 98 96 96 97 96 97 96 96 94 96 97 96 95 95 94 94 95 95 94 94 96 97 92 83 79

GFSNE_700_rhum_075.txt.gz
RH
91 79 81 77 81 75 71 62 53 58 64 40 39 41 44 52 56 87 88 86 87 96 79 50 27 22 25 26 19 9 14 19 24 26 26 26 32 80
79 79 77 78 58 46 43 40 40 50 57 49 40 42 41 50 91 86 64 94 100 96 81 40 28 22 26 26 10 7 6 7 9 14 20 25 32 74
90 84 79 60 42 40 40 42 45 44 42 39 41 41 53 61 69 96 100 82 78 74 58 35 28 25 26 20 8 8 8 8 7 7 6 16 23 68
88 80 67 41 37 37 40 42 45 46 45 43 41 49 56 58 71 64 67 69 76 58 38 34 30 31 30 11 8 9 9 9 9 9 9 9 12 39
82 62 44 38 39 42 44 44 43 43 42 41 47 54 62 68 68 65 71 78 63 40 42 34 37 27 10 9 11 11 11 10 10 12 13 14 13 15
54 45 43 42 46 48 46 42 40 40 40 44 53 60 66 71 70 71 76 57 45 46 39 38 15 9 12 14 17 19 20 20 20 19 18 18 16 15
47 43 40 40 39 40 39 37 37 37 39 49 61 67 74 76 80 81 52 50 48 36 13 10 12 16 19 22 23 24 24 24 22 20 18 16 15 13
45 43 42 39 38 40 43 40 37 39 50 61 70 75 79 81 79 46 38 26 12 10 14 18 21 24 26 26 26 25 23 21 18 14 12 9 8 8
46 43 43 46 48 41 32 33 39 50 62 72 80 86 85 63 43 11 10 12 16 22 25 28 30 29 28 27 25 23 19 16 14 13 12 13 14 14
47 49 53 54 38 33 40 42 47 57 70 78 71 58 52 34 9 11 19 26 30 31 32 32 32 31 28 25 23 20 17 16 17 18 20 22 24 26
52 50 48 44 37 42 41 40 46 52 52 54 54 41 14 9 17 26 32 33 34 36 36 37 36 31 27 24 21 19 18 18 20 22 25 29 32 35
54 54 52 40 45 43 30 24 45 52 47 25 11 12 20 27 32 35 37 40 42 44 43 41 37 34 33 26 22 20 18 18 20 23 28 33 38 40
61 60 55 49 50 39 11 7 9 11 14 19 27 32 35 38 40 43 45 45 48 50 62 82 95 94 64 40 37 32 30 28 28 29 33 39 43 46
67 66 64 57 52 32 8 12 18 23 28 33 36 37 39 44 45 46 45 47 58 74 78 94 95 77 64 60 56 51 49 46 44 41 41 43 46 50
72 72 71 71 57 32 10 18 26 30 34 37 38 39 42 45 46 47 49 59 84 84 84 58 65 75 74 72 68 66 63 59 57 55 54 51 51 54
79 75 74 89 71 36 25 36 50 40 36 37 38 38 40 60 64 61 60 63 65 84 81 54 47 50 72 81 80 76 72 68 64 63 60 57 58 59
85 76 79 96 77 40 14 50 44 59 51 39 39 40 41 49 69 66 60 68 85 94 83 53 46 51 55 77 87 88 84 80 76 73 71 69 67 66
89 81 80 84 80 39 14 16 23 32 35 35 38 40 40 43 46 48 56 81 96 97 96 80 61 76 80 91 93 94 90 85 79 78 78 78 73 71
87 86 85 88 77 32 16 20 26 30 32 34 37 40 48 61 84 93 97 96 96 95 96 96 96 95 94 92 96 97 93 88 89 92 93 92 93 95
95 97 97 98 85 34 20 25 34 55 69 65 70 70 83 90 96 98 96 96 97 97 96 97 98 95 93 94 96 96 94 86 85 83 82 80 87 96
96 99 99 97 93 52 24 29 42 63 75 64 90 95 95 96 97 97 95 96 96 97 96 97 92 92 96 94 92 91 88 86 87 86 82 80 86 92
97 97 97 96 90 48 46 70 89 94 96 96 97 97 97 97 98 97 96 96 96 96 95 95 94 93 95 95 94 93 92 91 88 88 86 83 83 88
97 97 97 97 95 62 88 95 96 96 97 98 97 97 97 98 97 96 96 97 98 97 98 98 95 93 93 94 95 95 91 89 89 92 91 88 82 81

GFSNE_700_rhum_078.txt.gz
RH
84 94 93 90 78 76 71 71 56 45 40 36 36 53 55 46 38 48 53 67 85 87 89 99 93 66 32 23 24 26 19 22 27 28 28 28 24 37
79 78 78 72 70 71 67 54 40 38 35 34 37 40 44 40 43 48 62 81 96 78 98 100 95 90 31 26 25 28 20 11 14 23 30 28 25 25
81 80 84 83 82 70 55 40 39 39 36 39 39 41 44 46 46 59 97 73 100 94 98 94 70 64 33 28 28 29 11 8 7 9 14 28 33 35
88 88 89 78 74 58 41 40 39 39 41 42 42 42 43 45 54 60 70 75 88 94 82 76 66 40 33 31 29 24 9 8 8 8 8 9 19 33
82 69 81 59 51 40 40 42 44 42 42 41 40 40 41 46 60 81 84 94 78 71 76 70 46 41 33 35 30 12 9 9 9 9 9 9 10 32
79 83 60 50 42 40 36 35 35 38 39 40 40 39 44 52 63 70 80 80 75 78 67 49 48 41 42 20 9 10 11 12 12 11 11 12 13 14
72 52 47 44 41 38 40 38 38 37 39 40 38 41 52 63 70 79 82 80 82 58 54 53 45 32 12 11 13 16 18 19 20 20 19 18 17 16
59 57 50 46 44 42 39 37 38 43 39 36 41 52 65 76 84 87 87 84 51 58 51 22 12 12 14 18 21 23 24 24 24 22 21 19 17 15
59 50 47 46 44 42 40 39 40 30 34 42 50 65 75 86 92 90 70 38 20 13 12 14 18 21 24 26 26 26 25 24 22 18 15 12 10 9
52 51 50 46 45 43 43 40 37 40 38 41 55 71 79 77 64 54 19 10 13 19 24 28 29 30 29 28 26 24 23 21 18 15 13 13 14 14
58 57 50 49 47 44 44 38 42 38 38 45 48 48 50 50 26 10 11 20 28 31 31 33 33 32 30 29 25 22 20 18 16 16 18 20 21 23
62 59 57 53 52 52 42 45 42 28 35 49 55 51 28 11 12 23 30 32 34 36 38 39 38 38 34 34 29 22 20 18 18 18 20 22 25 29
65 69 65 60 60 56 51 48 32 10 10 12 12 12 16 24 29 32 35 38 42 43 45 46 53 70 78 92 95 93 81 36 24 22 22 23 27 31
80 77 69 68 66 64 60 51 20 8 12 16 22 29 33 35 37 40 43 44 45 52 71 79 84 80 77 83 81 54 43 41 38 37 37 36 36 38
94 89 78 74 73 70 70 56 22 12 19 25 30 36 38 39 42 44 46 48 50 60 67 76 77 76 83 92 89 69 64 62 60 59 57 54 52 50
97 97 91 79 75 75 78 72 21 16 28 33 33 37 39 40 42 46 53 60 70 73 78 72 85 78 58 59 71 78 78 75 71 68 66 63 61 59
99 100 92 82 80 80 88 88 25 22 40 43 37 36 38 39 45 56 59 58 60 64 71 75 88 85 59 48 49 59 77 85 84 82 79 76 73 71
99 99 95 91 86 83 88 87 37 22 48 50 54 42 40 40 41 46 56 65 64 62 63 80 96 95 80 57 71 78 89 91 86 82 80 80 80 79
98 98 97 96 91 89 86 83 39 16 24 26 34 35 37 39 40 41 43 50 71 86 93 96 95 93 91 89 89 92 93 90 86 85 84 81 80 81
90 90 96 100 100 97 93 87 37 18 22 28 32 34 37 42 48 52 73 87 92 93 96 96 96 94 92 94 95 97 94 91 89 88 86 84 83 83
86 91 100 99 99 100 98 83 30 47 25 31 51 66 64 58 70 90 95 96 95 96 96 96 93 92 94 92 92 96 95 93 91 88 85 84 84 85
96 97 98 99 98 98 99 84 84 87 28 42 60 68 80 89 97 96 96 97 97 96 97 96 95 93 90 89 92 90 90 92 92 86 85 85 85 81
96 98 98 98 97 96 96 95 93 87 41 60 78 95 96 97 96 96 96 96 96 96 98 98 95 91 92 92 90 90 89 89 87 86 84 84 82 83

GFSNE_700_rhum_081.txt.gz
RH
98 98 99 95 94 91 88 74 70 62 57 39 30 33 34 35 39 45 48 40 42 51 74 95 98 98 100 81 57 32 25 28 27 30 31 27 27 44
98 97 93 92 87 82 78 84 86 73 48 36 34 34 33 33 39 41 43 45 47 55 72 98 90 96 100 89 66 32 28 29 26 22 30 30 30 27
86 81 76 72 74 81 76 74 71 53 36 33 34 34 36 38 41 43 44 43 52 82 88 99 89 99 81 72 56 31 27 30 26 15 19 29 32 25
86 90 90 87 87 86 82 68 53 38 36 35 36 36 40 42 41 41 44 57 65 76 79 97 87 87 76 68 41 33 29 28 17 10 9 13 24 28
90 87 83 86 75 80 64 49 38 36 35 34 34 37 40 40 40 41 44 51 69 74 77 73 72 79 74 47 40 34 37 28 10 8 9 9 10 16
96 89 91 84 88 60 48 40 37 36 37 36 35 35 37 36 38 39 47 57 61 68 70 71 74 72 50 49 38 37 25 12 10 9 9 9 10 10
94 95 94 94 75 52 44 40 39 40 37 36 37 41 41 39 39 43 53 60 71 77 76 80 58 51 52 47 39 14 12 11 12 12 10 10 10 12
90 91 93 88 54 50 45 43 42 41 40 39 40 31 33 38 48 58 59 72 83 82 80 50 55 52 34 16 12 13 15 18 19 20 20 20 18 16
90 79 85 65 59 51 47 46 46 42 40 37 38 39 38 42 57 68 76 78 84 66 38 32 17 12 13 16 18 20 22 24 24 24 23 22 21 19
62 57 55 69 62 58 56 52 46 43 40 37 41 40 37 38 60 72 69 67 45 14 12 14 18 22 25 26 27 27 26 25 23 21 19 16 14 12
68 76 78 66 68 62 56 51 49 46 40 42 39 37 38 44 43 47 45 22 10 14 23 28 30 31 30 30 31 28 24 24 22 19 16 14 14 13
83 84 77 71 69 61 59 56 52 47 46 42 32 32 45 48 44 27 11 11 21 29 31 32 34 37 35 35 32 32 34 28 22 18 17 18 19 21
91 87 73 69 68 69 66 61 59 54 48 33 14 21 24 24 16 12 25 30 33 34 35 38 39 39 41 57 79 81 87 63 29 27 32 29 22 22
96 84 79 74 74 76 70 66 66 60 54 24 8 10 12 16 21 24 30 34 37 40 42 45 56 74 75 75 77 78 76 76 77 79 57 31 27 27
99 93 87 84 82 86 81 74 72 68 56 17 11 17 24 30 34 36 38 41 44 45 50 65 69 67 69 74 76 87 88 78 61 53 51 50 49 48
97 96 93 88 89 94 90 79 76 77 68 26 15 24 31 36 37 39 42 45 46 47 53 56 63 71 67 75 73 81 89 84 74 72 70 68 65 63
99 97 96 93 94 95 96 96 85 83 84 30 17 31 34 35 39 40 42 46 52 61 68 68 66 67 66 70 84 63 56 53 67 78 80 80 79 76
93 87 96 99 98 97 98 97 92 86 94 30 27 42 40 38 38 39 43 51 58 60 60 64 64 57 62 79 90 81 55 55 72 78 84 84 83 80
88 87 88 89 97 100 98 97 95 92 97 44 26 43 47 46 41 40 41 42 46 53 53 51 72 88 91 92 93 89 80 80 82 84 84 83 82 82
89 87 93 90 98 97 97 97 96 96 92 54 21 32 39 44 39 38 39 41 42 46 60 83 92 91 88 88 92 96 92 90 88 87 86 85 83 82
97 96 97 97 98 97 97 97 99 100 95 63 25 25 31 33 34 37 41 48 52 62 88 96 94 89 92 91 90 93 89 85 85 86 85 85 85 83
96 96 97 97 96 97 97 98 99 97 96 81 27 33 29 34 52 62 58 61 87 97 96 92 94 91 92 91 91 88 86 90 89 89 86 86 86 83
96 97 96 97 97 97 98 99 96 95 97 72 39 75 36 53 59 62 83 95 97 96 96 94 93 91 92 91 90 89 88 89 91 91 89 86 83 81

GFSNE_700_rhum_084.txt.gz
RH
95 90 95 92 95 98 92 100 94 88 73 70 68 56 35 32 32 32 35 37 40 40 40 42 40 42 56 77 57 72 77 43 24 28 29 30 30 25
100 100 100 100 100 100 98 97 84 82 82 78 69 41 33 34 36 37 37 39 41 41 42 42 43 66 86 78 81 75 74 51 27 23 26 27 29 28
97 86 98 97 89 83 82 80 84 88 81 72 50 37 35 37 38 40 41 41 42 41 40 39 53 63 70 64 77 65 68 39 29 28 27 18 27 30
81 81 86 84 88 85 86 89 82 81 64 50 37 37 34 36 39 39 41 40 38 37 39 44 58 57 64 76 71 71 55 34 30 30 53 18 15 28
85 86 86 90 97 95 92 78 71 59 51 41 38 36 38 37 36 36 39 38 37 36 40 43 49 62 70 69 70 64 43 36 32 31 19 11 10 16
90 92 96 97 94 90 91 90 88 60 50 42 39 40 39 40 38 42 40 38 38 40 50 54 61 67 69 72 64 46 43 38 36 26 9 10 11 10
96 97 99 100 96 95 93 91 69 58 48 44 44 41 39 39 39 33 32 32 36 42 54 68 74 74 73 53 51 50 45 37 20 18 14 9 9 11
98 99 100 100 96 93 92 81 52 50 47 49 47 42 40 37 38 38 39 44 53 55 65 74 82 64 51 52 50 43 21 13 12 12 12 11 11 10
100 97 99 100 100 96 92 68 64 49 44 46 45 43 39 39 41 40 41 49 60 78 83 77 48 45 34 18 14 13 14 17 18 20 20 21 20 19
80 97 99 100 99 92 78 75 60 52 46 46 44 43 40 40 39 37 40 48 61 70 65 26 14 12 14 17 20 22 24 25 26 24 23 23 24 21
60 66 69 70 75 71 81 70 62 58 52 49 47 43 42 40 37 39 39 39 45 36 13 12 16 24 28 29 29 29 28 28 27 25 22 19 18 15
72 68 68 70 74 78 83 70 69 63 58 56 51 46 42 32 35 43 41 36 14 10 14 24 29 31 32 33 31 30 28 27 30 57 66 36 16 14
83 90 88 89 94 91 80 75 73 68 63 60 56 51 45 18 29 40 25 11 12 22 29 31 33 35 37 33 34 42 65 80 82 80 67 40 19 19
97 98 100 100 96 91 82 78 76 72 66 64 62 56 36 10 12 12 13 19 31 32 34 38 39 41 49 69 73 71 74 78 78 84 77 56 77 82
100 100 100 100 96 91 80 76 80 80 73 71 69 61 31 10 13 19 26 27 32 35 40 42 46 59 70 66 68 64 73 81 78 56 76 82 63 42
100 99 99 99 100 89 83 75 79 83 84 81 76 70 35 13 20 30 34 36 40 43 44 47 58 63 62 65 66 62 70 79 96 91 79 64 61 60
100 100 98 99 100 96 89 81 81 86 90 94 87 82 43 16 26 34 38 39 42 46 46 51 57 62 66 66 66 63 62 73 76 83 82 80 80 78
95 96 98 98 99 100 100 96 90 91 94 96 94 88 65 19 30 35 38 40 43 47 49 56 64 65 64 64 59 71 82 89 64 52 56 68 78 83
94 94 94 97 97 97 97 96 100 100 98 100 93 90 71 23 38 39 39 39 42 47 52 59 61 60 55 61 87 93 94 90 86 71 64 74 82 84
97 98 98 96 96 97 99 100 97 99 100 98 96 92 88 26 34 44 41 40 41 43 45 48 51 49 68 90 95 93 90 89 88 86 87 86 86 87
97 97 96 99 98 96 98 98 97 97 98 97 96 93 86 31 42 43 46 42 41 41 42 44 48 70 92 96 97 96 92 91 89 86 83 82 82 82
93 97 96 99 97 96 97 97 97 96 96 96 97 95 81 51 38 36 38 38 39 41 44 53 83 94 97 96 97 96 97 93 89 85 80 80 81 80
40 95 96 97 95 96 96 96 96 96 96 97 98 98 90 55 37 48 35 36 44 57 56 89 96 97 98 97 95 98 96 97 94 86 85 84 82 82

GFSNE_700_rhum_087.txt.gz
RH
99 98 99 98 98 99 89 80 90 92 100 99 96 82 82 76 50 38 36 36 38 38 37 36 36 41 44 41 44 51 41 46 60 54 28 23 27 33
81 98 99 98 100 99 96 92 93 100 98 90 86 88 80 62 39 38 39 40 42 43 41 41 41 44 42 44 49 54 59 55 56 55 27 24 26 30
82 76 94 99 100 100 100 100 100 96 83 82 87 81 66 48 39 37 35 38 38 40 38 39 38 39 38 46 51 50 51 52 50 53 28 23 26 26
71 79 99 97 96 99 88 84 82 80 82 89 84 78 60 44 41 40 38 38 38 39 38 39 38 42 39 44 56 58 61 60 60 42 28 25 32 26
79 87 99 88 88 86 89 89 89 92 84 79 80 60 47 40 37 38 38 38 36 39 41 41 40 40 42 54 58 58 64 67 55 36 30 31 40 24
92 100 97 90 92 95 96 100 95 92 85 84 60 48 41 36 37 39 38 36 38 35 37 38 40 45 50 58 64 68 72 61 41 35 33 29 15 19
100 99 100 99 99 100 99 98 93 92 93 86 51 46 42 41 41 40 37 35 38 37 38 41 45 52 61 70 72 71 54 47 41 36 33 14 11 20
83 99 91 100 96 100 100 98 92 93 88 85 62 50 45 44 41 37 36 37 39 39 40 46 54 66 71 74 59 54 48 46 41 29 21 13 11 16
52 61 90 85 95 95 88 89 99 95 91 75 60 54 49 49 44 39 37 39 38 40 49 54 70 78 59 48 49 41 33 20 13 12 12 12 11 10
44 66 74 83 82 91 96 80 96 100 89 64 61 58 54 49 44 41 40 39 39 43 50 64 69 45 29 18 13 14 14 16 17 19 20 21 21 20
37 44 58 80 97 99 91 87 81 84 67 69 63 56 55 52 46 43 41 38 38 38 42 44 24 13 13 16 20 23 24 25 25 26 24 25 24 22
33 42 56 56 66 77 82 82 78 79 78 76 62 57 55 54 49 44 35 39 39 40 31 14 12 19 26 30 30 30 28 27 26 24 23 41 56 55
36 37 51 73 84 80 80 83 94 99 91 75 66 61 60 57 52 41 23 40 42 24 12 13 24 30 31 33 34 31 27 28 45 52 48 52 53 58
50 49 66 86 89 99 98 99 100 99 87 73 69 66 64 63 54 26 14 22 22 13 18 28 31 34 37 38 37 47 64 69 70 77 82 67 40 43
48 84 95 100 100 100 100 100 100 94 85 76 76 76 71 66 59 21 11 12 13 21 31 33 36 39 41 50 70 67 66 64 68 76 75 78 91 59
77 100 100 100 100 98 100 98 94 98 93 86 85 85 76 71 66 30 11 17 22 25 30 36 41 43 63 74 68 70 68 61 68 86 86 47 64 79
100 100 98 98 100 99 99 100 94 98 96 96 92 90 92 83 73 48 15 23 32 36 38 42 44 51 68 71 66 70 67 66 63 71 88 96 91 72
78 100 98 99 98 100 99 98 98 98 98 98 97 97 94 96 84 67 22 26 36 39 40 44 45 50 64 66 68 66 60 61 71 78 73 87 76 78
20 87 97 98 97 100 100 100 97 100 100 98 97 98 98 97 90 81 33 25 35 39 42 44 47 51 62 68 66 57 61 88 95 94 83 56 54 60
18 17 72 96 95 96 97 97 96 98 96 97 97 98 98 97 97 89 39 27 38 39 41 43 48 53 62 60 58 62 93 96 96 96 94 90 79 75
17 22 20 68 89 96 96 97 96 97 96 96 96 97 98 97 99 96 42 36 40 40 40 42 47 49 48 50 62 88 95 96 96 94 94 94 93 92
21 26 24 42 89 95 96 96 96 96 94 95 97 96 97 99 99 97 43 30 42 43 51 62 59 43 45 51 84 94 95 96 95 93 92 89 85 81
30 31 26 24 70 92 96 96 96 99 94 94 96 96 96 97 98 94 35 34 42 45 70 63 52 42 47 85 95 96 96 95 96 96 95 91 86 84

GFSNE_700_rhum_093.txt.gz
RH
99 99 100 100 100 99 98 100 100 100 100 100 100 100 100 100 100 99 100 94 78 72 43 33 30 28 28 29 31 31 29 30 29 32 32 34 37 45
98 100 100 100 100 100 99 100 100 99 95 83 99 98 100 100 100 100 98 87 76 62 40 34 31 30 31 32 31 30 29 30 31 32 33 35 38 42
99 100 100 100 100 100 100 99 99 99 98 97 93 97 95 95 98 97 89 82 70 51 37 33 32 32 33 34 34 34 33 33 32 34 35 39 44 44
92 95 98 98 97 96 95 100 98 99 100 99 100 98 99 98 100 90 84 69 54 42 35 32 33 33 33 33 35 34 34 33 35 36 38 43 46 45
73 75 78 79 82 81 91 91 99 92 99 100 100 90 99 94 98 92 76 58 46 38 34 33 34 35 32 32 31 31 32 32 36 40 43 46 49 52
36 36 35 34 36 50 84 73 88 99 99 94 99 98 96 92 94 85 78 56 41 38 36 38 36 34 31 34 35 34 33 35 40 44 48 53 58 51
34 33 34 36 36 33 43 53 98 100 99 100 92 86 84 87 96 94 78 62 45 40 39 39 35 33 32 33 33 34 39 43 48 53 54 59 52 39
42 39 35 33 32 35 69 95 99 99 99 98 94 98 100 100 98 94 85 66 51 46 43 40 36 32 33 34 33 38 42 50 54 57 52 48 44 40
34 37 39 36 34 49 64 82 82 96 99 100 99 99 100 100 98 93 81 74 54 46 41 42 38 35 34 33 37 41 49 53 44 41 42 43 43 39
28 30 33 37 36 36 85 49 100 100 99 99 99 99 99 98 98 93 85 78 52 47 45 43 39 36 36 36 38 45 48 42 38 40 41 39 34 28
28 30 34 35 37 40 51 69 87 100 99 98 100 100 99 98 98 95 88 76 57 52 50 45 40 40 38 38 40 43 30 19 17 17 16 14 13 12
27 22 22 35 43 40 41 56 83 78 100 99 100 100 100 95 96 92 79 63 61 55 52 47 43 40 38 40 36 20 13 12 14 15 16 15 16 15
50 47 29 18 25 52 47 45 53 99 100 100 100 100 100 90 92 81 69 74 67 59 54 48 42 41 38 32 17 13 16 22 25 25 25 25 24 23
45 49 52 51 27 20 52 54 68 96 100 97 100 100 100 100 96 85 85 82 70 62 57 48 39 42 33 14 14 21 28 30 30 29 27 25 24 24
16 22 32 41 46 42 21 51 88 98 100 100 100 100 100 100 99 100 98 83 72 66 59 49 34 39 15 14 25 31 32 32 30 28 27 40 56 61
18 15 13 18 29 36 36 35 99 100 100 100 100 100 99 100 100 100 99 86 76 68 60 39 24 23 13 26 31 33 34 31 30 51 62 61 60 58
15 18 18 16 13 18 26 40 100 99 98 97 99 99 98 97 99 98 98 91 80 71 57 25 15 15 21 31 33 35 40 51 62 61 62 64 61 58
13 12 12 12 17 20 24 38 92 98 98 98 94 98 98 98 98 100 99 94 84 74 41 18 12 14 28 33 34 37 51 63 64 62 66 65 59 54
15 13 11 9 10 12 20 53 76 92 98 96 98 96 100 100 98 97 98 98 93 87 88 44 16 20 25 33 34 45 70 74 68 65 66 58 55 57
16 15 12 10 8 8 9 17 73 100 100 94 94 97 97 96 96 98 97 98 99 97 97 77 49 28 34 31 33 74 85 80 74 70 66 59 59 79
17 15 13 11 10 8 8 9 17 71 99 99 84 95 97 98 96 95 96 96 97 98 95 95 88 44 36 34 38 65 88 82 78 74 71 58 72 91
28 23 17 13 11 9 9 9 12 24 76 98 95 94 97 94 96 95 97 94 97 97 100 96 93 49 37 38 34 68 90 91 86 78 63 58 85 95
29 26 24 22 19 15 11 11 12 26 56 98 99 93 95 95 94 95 96 96 96 96 96 96 94 50 37 37 36 46 81 93 89 69 57 66 91 96

GFSNE_700_rhum_096.txt.gz
RH
100 100 100 100 100 100 100 99 98 99 97 96 91 100 100 100 100 100 100 100 100 99 98 94 70 44 31 29 28 27 26 26 26 26 27 28 29 28
99 100 100 100 99 100 98 98 99 100 98 100 100 99 98 99 100 100 100 100 99 100 98 92 64 40 30 28 28 29 29 28 28 28 28 28 28 27
100 99 98 99 100 100 100 99 99 100 100 99 99 100 96 98 100 99 100 100 100 97 93 85 51 36 30 28 30 30 29 30 31 30 32 32 30 29
100 100 100 100 100 99 100 99 99 99 99 99 99 100 100 97 99 100 100 100 96 90 79 56 42 33 30 32 33 31 29 30 30 29 29 31 33 33
80 84 87 92 93 94 96 97 99 100 100 100 99 99 99 100 100 100 100 99 94 83 64 43 36 31 29 31 32 30 30 32 31 31 29 31 37 39
40 40 43 45 42 39 39 39 39 55 74 97 91 99 100 99 100 98 99 99 97 78 58 40 34 30 30 32 32 31 31 35 32 32 34 36 40 42
42 44 41 38 37 38 39 37 37 69 94 85 77 99 99 99 100 100 99 98 96 83 62 42 36 33 35 35 32 31 30 32 32 36 39 41 46 49
30 34 37 41 41 40 37 37 40 41 68 98 99 97 95 99 96 99 98 93 98 86 66 45 35 35 38 36 32 31 30 29 35 38 43 48 51 52
26 27 27 34 36 39 40 39 42 42 100 76 99 100 99 100 98 100 96 99 99 90 72 52 40 38 39 37 35 33 33 35 37 43 46 45 41 43
28 28 29 29 32 36 39 40 40 44 100 100 99 99 99 99 98 100 100 100 92 88 80 64 47 44 41 38 36 35 35 38 40 46 41 38 39 42
47 44 35 27 25 32 42 41 44 54 100 96 100 100 100 99 97 99 99 99 99 95 87 68 51 46 44 41 38 37 38 38 42 41 35 38 40 37
13 27 44 50 38 22 25 54 50 81 83 100 80 100 98 99 98 98 96 98 98 92 88 71 57 50 45 44 41 39 38 40 34 21 17 18 18 16
10 8 11 21 43 52 40 22 53 71 100 99 100 99 98 98 98 98 100 94 85 95 83 72 57 54 48 47 42 39 39 28 16 13 14 14 14 14
15 16 13 12 18 30 48 51 27 54 100 100 99 100 100 99 97 99 98 98 95 100 88 76 62 58 54 48 40 38 28 14 14 18 22 24 23 23
21 21 20 18 14 17 29 41 51 37 69 100 100 100 100 100 99 98 100 100 98 99 93 84 70 61 56 47 40 33 17 16 24 28 29 28 27 25
20 20 20 19 18 17 18 22 32 45 42 100 100 100 99 98 98 98 98 100 100 100 92 88 72 64 56 40 40 18 15 24 29 32 30 25 25 30
22 21 19 16 15 18 19 17 22 32 42 54 97 96 97 98 96 95 95 98 99 100 100 91 76 66 48 32 29 14 22 32 33 30 27 53 63 60
24 22 22 16 14 13 13 17 21 100 92 67 68 87 92 97 99 92 86 97 99 99 99 94 81 64 44 24 18 17 30 33 34 32 44 60 60 59
28 23 20 21 17 14 12 11 15 39 98 100 100 91 85 92 77 94 97 99 99 100 98 97 87 61 34 14 15 23 31 32 38 54 65 64 63 63
35 28 23 19 18 16 12 10 11 14 37 97 97 100 96 97 96 97 94 96 98 99 99 96 90 51 22 17 17 27 32 33 58 71 70 66 66 61
48 45 36 23 18 16 13 11 10 10 12 29 94 97 98 99 99 100 96 97 97 95 94 99 80 46 66 60 41 25 30 33 64 77 77 72 69 67
48 44 42 37 29 20 15 12 11 10 11 13 39 95 98 100 95 93 97 95 94 97 97 96 92 84 92 72 46 32 30 34 61 82 83 80 76 70
54 45 42 38 32 28 24 15 12 11 13 12 21 48 96 98 100 100 95 95 97 96 97 95 94 91 97 95 89 59 32 31 66 88 91 94 91 71

GFSNE_700_rhum_099.txt.gz
RH
99 98 99 100 98 98 99 99 99 100 98 99 99 100 99 100 99 91 99 99 100 100 100 100 100 100 96 76 46 32 28 25 28 27 25 25 24 25
100 100 100 100 99 100 100 100 99 99 98 97 91 99 99 98 100 98 100 100 100 100 100 100 99 99 86 76 41 31 28 30 30 28 26 26 27 27
100 100 100 100 99 100 100 99 100 100 100 99 100 100 100 99 99 99 100 100 100 100 100 99 99 99 92 59 39 30 29 29 29 26 25 26 27 28
100 100 100 99 100 100 100 100 100 99 100 100 99 99 100 99 99 99 100 100 100 100 99 99 90 76 61 45 35 30 29 29 28 26 26 28 29 28
49 65 68 91 98 99 99 98 97 97 98 98 98 100 99 100 99 99 97 99 100 100 99 95 87 65 48 39 34 30 29 29 27 26 29 30 30 28
42 43 43 42 40 41 47 62 71 62 61 87 85 92 83 94 99 99 100 100 100 98 99 94 79 60 45 37 33 31 31 31 29 28 30 30 30 31
20 26 33 38 43 44 43 39 37 37 42 48 69 96 93 100 99 96 99 100 99 99 98 91 81 61 42 36 33 35 33 31 30 31 29 31 29 31
12 15 19 21 24 31 38 44 44 41 37 36 87 84 76 98 100 90 99 99 97 96 97 96 86 66 43 36 34 35 33 32 31 29 28 32 31 34
18 22 24 27 29 27 28 33 38 44 47 42 35 37 45 89 93 99 100 96 99 99 95 97 93 72 49 38 36 37 34 33 33 31 34 35 35 39
8 10 16 22 31 34 30 29 39 43 55 94 69 44 36 90 69 99 99 100 100 96 85 99 98 82 58 40 38 40 38 36 35 34 38 38 39 39
5 6 6 5 6 13 31 34 27 35 59 70 100 95 88 100 100 99 98 98 98 94 97 100 100 96 70 46 42 42 40 39 39 39 40 40 40 36
5 5 4 4 6 8 6 16 36 33 27 88 99 99 88 99 99 98 100 97 94 98 98 99 99 98 84 51 43 44 44 42 39 42 44 40 33 35
15 16 13 9 6 8 9 10 22 37 40 27 86 99 100 98 98 100 98 100 92 99 95 96 98 98 80 74 54 49 46 43 39 41 38 25 21 25
26 25 19 12 8 9 12 12 22 38 50 46 32 73 98 99 98 98 99 98 99 98 99 94 92 93 84 74 64 54 49 44 39 37 23 14 13 13
37 30 21 14 13 14 15 14 17 26 39 50 49 38 69 98 98 97 98 98 89 98 98 100 100 100 86 78 68 55 50 44 38 22 14 14 17 18
41 32 22 20 19 17 17 16 18 20 24 38 76 48 58 95 95 98 96 98 100 92 98 100 99 98 88 84 67 58 50 40 28 16 16 21 26 26
45 40 28 29 20 18 17 16 15 19 23 28 100 68 67 62 89 96 96 98 83 95 92 96 99 100 100 84 69 58 46 38 19 18 24 30 30 28
52 44 37 39 24 20 19 15 14 14 21 27 98 99 100 96 96 97 90 94 96 98 96 94 98 100 100 87 71 53 41 31 16 24 30 32 28 25
68 50 45 44 32 21 20 18 14 14 15 80 99 95 98 100 98 88 94 95 91 95 96 98 98 99 100 91 65 50 32 19 18 30 32 29 34 62
95 57 49 46 38 26 20 18 17 14 13 15 78 98 98 97 98 91 88 97 96 99 95 94 91 98 98 95 66 35 20 16 25 31 29 30 48 62
99 69 55 53 48 40 25 20 16 15 13 13 16 61 98 100 96 100 100 91 97 97 96 95 99 97 97 96 74 26 16 18 27 29 35 57 66 65
100 95 59 53 50 44 38 28 18 16 15 13 13 16 58 96 96 100 100 98 98 100 97 99 95 96 94 99 50 26 17 22 29 30 50 69 74 69
100 100 100 76 53 44 39 34 28 18 16 14 13 13 17 62 97 96 97 97 96 97 100 97 95 95 95 97 73 54 42 28 28 30 47 77 78 81

GFSNE_700_rhum_102.txt.gz
RH
100 100 100 100 100 100 100 100 100 99 97 97 99 100 100 99 99 99 99 98 99 99 96 94 98 100 100 100 98 96 71 47 31 27 24 26 27 25
99 100 100 99 99 99 99 100 99 99 100 100 100 100 99 99 99 98 99 100 99 89 86 94 100 100 100 99 100 89 74 46 33 28 26 28 26 26
100 100 100 100 100 99 99 98 100 99 99 99 98 99 98 100 100 100 100 100 98 98 99 100 100 99 99 100 100 85 78 42 34 29 29 30 25 25
100 100 100 99 100 100 99 100 100 100 100 100 99 99 99 99 100 100 99 98 98 99 100 100 100 98 100 99 99 96 63 38 32 31 31 28 24 25
45 45 46 58 77 96 98 98 99 99 99 100 99 98 96 98 99 98 99 99 100 99 100 100 99 100 99 100 90 62 48 36 29 29 27 30 27 26
23 29 36 40 43 44 46 59 71 76 77 79 85 89 95 97 98 100 97 97 99 100 100 99 99 100 97 82 69 50 42 35 31 30 31 30 28 29
13 16 18 21 24 30 37 43 45 44 43 41 41 42 46 51 91 99 84 97 100 90 99 100 99 100 100 90 63 48 40 36 34 32 32 30 28 28
11 13 14 15 16 19 23 23 28 38 45 46 45 42 38 41 63 72 94 99 99 95 99 99 99 99 97 83 66 51 40 35 32 33 32 30 28 26
3 4 4 6 9 14 19 22 26 27 29 38 42 48 47 42 86 76 99 86 96 100 98 99 100 98 99 96 74 55 42 38 37 37 33 30 27 27
4 4 4 4 5 5 5 6 11 21 28 30 31 42 52 95 81 100 95 86 99 100 100 99 98 96 99 99 95 67 45 39 37 37 37 34 30 34
5 5 5 5 4 4 5 5 5 5 6 16 30 30 42 82 100 100 100 92 100 100 99 100 100 98 96 87 92 75 52 40 41 40 39 36 35 38
7 8 8 9 10 10 9 9 8 6 5 5 8 26 31 42 99 98 100 96 100 100 92 100 100 100 98 87 98 86 57 48 45 42 40 37 37 39
15 17 19 22 22 21 20 18 16 11 8 5 6 11 38 35 41 71 98 99 100 99 99 100 98 99 98 91 100 98 72 57 47 44 42 39 40 42
19 20 22 26 30 33 30 23 17 12 9 6 6 7 37 44 34 45 91 98 98 98 99 99 99 94 96 98 98 98 93 68 52 46 43 42 42 36
14 16 17 20 26 38 37 24 17 11 9 7 7 8 14 50 36 36 98 96 98 97 97 98 98 99 96 98 100 98 92 69 52 48 44 43 38 24
32 36 34 34 36 43 38 24 16 13 12 11 10 12 11 40 77 100 93 99 96 98 97 98 97 98 97 98 98 99 96 71 57 50 44 40 26 14
53 58 62 57 48 48 36 26 19 16 16 16 15 15 15 24 68 99 100 95 96 96 97 97 97 97 98 97 98 98 94 73 59 51 43 29 16 15
79 80 76 73 61 55 39 34 20 19 17 15 14 17 19 21 79 92 98 99 93 97 96 95 97 98 98 96 97 97 94 75 57 49 34 17 17 23
94 92 90 89 84 56 45 40 23 20 19 15 14 15 20 41 92 87 96 98 96 96 97 98 97 97 97 97 92 97 95 73 55 46 23 18 25 27
100 98 97 97 97 59 50 42 29 21 19 18 15 14 50 77 70 93 97 97 97 95 97 96 95 95 98 98 97 97 95 65 50 34 19 24 28 27
100 97 96 99 98 67 57 50 44 28 21 18 16 13 14 57 95 81 97 96 98 97 97 96 97 98 100 100 97 93 93 68 41 22 21 27 25 24
100 100 100 100 99 81 58 53 46 39 26 20 16 13 14 17 61 94 97 97 97 98 97 96 96 97 100 89 89 92 95 58 33 19 24 26 24 25
100 100 98 97 99 100 77 52 44 40 35 27 18 15 13 14 26 78 95 95 97 97 97 100 100 98 92 87 98 96 97 66 33 19 25 24 27 38

GFSNE_700_rhum_105.txt.gz
RH
99 99 100 100 100 100 100 100 100 100 100 98 99 100 100 99 97 99 98 96 99 100 100 99 94 97 98 100 100 99 100 97 99 92 55 31 24 22
99 100 100 99 100 98 100 100 100 100 99 100 98 100 100 99 100 99 98 100 99 98 99 96 99 98 98 99 100 100 100 100 98 98 61 34 25 24
99 99 100 100 100 100 100 100 99 99 99 99 99 100 100 100 100 100 99 100 97 99 99 100 98 99 97 100 100 100 100 100 99 98 68 36 26 26
56 80 100 100 100 100 100 100 99 100 100 99 100 100 99 100 100 100 100 99 99 98 98 98 100 99 99 99 100 100 99 99 98 93 71 36 26 26
32 40 45 46 57 67 95 100 100 99 100 100 100 99 99 100 99 98 100 100 100 99 100 100 91 84 99 100 100 99 98 100 100 97 65 34 27 28
11 13 17 22 29 37 44 49 56 78 84 90 98 98 100 100 100 100 99 100 100 100 100 99 97 100 100 99 97 96 98 98 100 82 45 34 30 28
11 12 12 12 13 14 16 23 32 43 48 53 60 64 60 57 68 71 95 91 100 100 98 100 98 100 99 98 94 100 100 91 67 49 39 33 30 28
3 3 3 4 6 8 11 13 14 15 20 27 38 47 48 47 45 44 46 60 100 99 99 100 100 92 100 99 95 92 88 85 70 50 38 34 32 32
4 4 4 4 4 4 4 4 5 7 10 13 17 22 26 34 44 47 45 52 93 99 88 99 100 99 99 100 94 99 95 87 75 51 37 33 33 32
5 5 5 5 5 5 5 4 4 4 4 5 5 8 13 21 27 31 41 51 55 96 97 99 100 99 99 100 100 100 100 93 76 56 39 30 31 34
7 7 6 6 6 6 6 6 6 7 7 7 5 5 5 5 13 27 30 36 54 87 98 99 99 98 100 98 100 100 100 99 97 74 43 35 33 34
9 9 8 8 8 8 8 8 8 8 9 10 11 10 7 5 6 10 32 33 37 62 88 100 98 92 99 96 99 99 100 99 99 97 61 42 39 34
12 12 12 12 14 15 16 16 14 12 12 11 9 11 14 9 5 6 21 40 35 51 85 92 97 93 93 98 100 99 96 100 99 97 68 50 44 38
16 15 14 16 17 16 17 19 22 24 25 22 15 10 15 15 8 6 9 35 67 44 94 98 94 99 98 92 99 99 99 98 99 99 84 54 46 42
16 16 15 15 14 13 15 20 22 25 32 35 32 26 21 18 12 6 6 19 48 86 73 59 98 100 97 97 98 94 100 98 98 100 98 54 46 43
39 31 32 33 28 26 30 40 43 41 44 44 34 25 19 14 10 7 7 11 44 86 100 100 93 97 96 98 99 99 98 98 98 98 97 78 50 44
70 70 73 78 78 74 68 64 62 53 49 37 23 17 14 13 11 11 10 12 36 58 92 98 99 92 96 97 97 98 97 99 100 98 97 92 53 49
78 81 85 93 96 99 100 90 70 58 45 35 22 18 17 15 14 14 16 16 34 74 96 93 96 98 96 97 98 98 97 98 98 100 94 76 54 50
86 87 90 96 100 100 100 100 97 66 49 38 23 20 18 15 15 17 20 33 79 76 89 100 96 97 96 96 97 97 95 97 97 98 96 89 57 47
84 89 90 90 94 100 100 100 100 77 53 43 28 22 20 16 15 51 64 91 98 79 83 95 94 95 97 95 97 97 98 96 97 97 96 70 50 29
94 99 100 100 99 100 100 100 100 83 61 53 38 24 20 18 15 19 96 97 88 91 88 96 96 96 96 97 97 95 95 97 96 95 92 63 39 20
96 99 100 100 100 100 100 100 100 85 65 54 45 30 20 18 14 15 25 73 88 85 99 96 96 97 97 97 98 96 93 96 97 96 75 41 26 20
98 99 99 100 100 100 100 100 100 95 72 56 49 35 22 18 15 15 22 78 97 82 96 96 96 94 94 96 97 96 96 96 96 80 47 34 22 22

GFSNE_700_rhum_108.txt.gz
RH
100 100 100 99 100 99 100 100 100 100 98 98 100 99 100 100 100 100 100 99 100 100 98 96 98 99 100 100 99 100 98 97 99 92 99 89 92 82
99 100 99 100 100 100 100 100 100 100 100 98 98 100 100 100 100 99 100 100 98 94 92 98 99 99 99 100 100 100 100 100 98 98 100 99 99 89
98 100 99 99 100 99 99 100 100 100 100 99 99 99 100 100 99 100 100 99 100 100 100 98 98 98 98 98 99 100 98 97 100 99 98 100 97 93
14 26 38 47 94 99 99 99 99 100 100 100 100 100 100 100 99 100 100 100 100 100 99 99 100 99 98 99 98 100 99 97 100 100 100 99 93 93
12 11 11 13 19 30 52 50 85 100 99 99 99 100 100 100 100 100 100 100 100 100 99 99 99 98 100 100 99 99 98 99 100 100 97 97 96 93
4 5 6 9 11 12 12 15 20 30 44 88 99 99 100 99 100 100 100 100 99 99 100 98 99 100 98 99 98 99 100 100 100 100 92 100 97 93
5 4 4 4 3 4 5 7 10 12 13 20 37 54 70 90 97 99 99 100 100 100 100 99 99 98 100 92 94 98 100 100 100 99 96 99 94 94
6 5 5 4 4 4 4 4 4 4 4 9 12 14 21 32 44 53 59 58 58 83 83 98 100 98 100 99 100 100 100 100 100 99 95 99 93 58
7 6 6 6 6 6 5 5 5 4 4 4 4 5 8 12 15 20 28 39 45 43 44 60 77 98 99 100 100 100 100 100 100 94 100 84 64 52
8 8 7 7 8 8 7 7 6 6 6 5 5 4 4 4 4 5 10 14 16 27 42 45 52 94 100 99 99 100 99 100 100 99 98 94 83 63
8 8 8 8 9 8 8 9 9 9 9 8 7 7 7 6 6 5 4 4 6 13 18 33 50 57 98 86 99 99 99 100 99 99 99 99 99 69
9 9 9 11 13 13 12 12 11 12 12 13 15 14 14 12 11 9 7 5 5 5 9 18 30 55 57 68 100 99 99 99 99 100 99 99 100 87
22 24 17 14 15 17 16 15 15 17 16 16 16 18 21 21 18 15 14 10 7 5 5 8 18 34 71 92 86 94 99 99 99 99 99 99 93 99
25 30 42 46 24 17 17 16 16 17 15 15 16 18 21 23 26 23 19 17 12 7 5 9 7 21 36 70 97 76 84 100 99 100 99 99 98 100
31 35 43 50 62 64 46 31 26 21 22 20 18 22 28 33 33 30 26 21 15 9 6 6 11 27 31 91 96 92 91 99 98 98 100 98 98 99
30 32 41 53 63 70 73 74 72 66 57 43 32 32 37 40 41 37 28 21 17 13 8 7 11 43 100 54 46 78 77 95 93 94 98 98 99 98
44 44 48 57 66 71 77 84 85 86 85 80 65 54 51 48 46 34 22 16 15 12 9 8 12 33 49 93 87 71 99 88 90 96 99 99 98 98
58 63 66 73 76 78 79 80 90 100 100 98 86 65 53 45 33 20 16 14 12 10 9 8 16 38 54 71 84 90 92 82 85 88 100 97 98 98
70 70 74 80 88 91 89 89 86 94 99 98 100 76 50 39 23 20 16 15 14 15 16 17 31 98 82 60 85 89 69 73 95 100 98 98 97 98
81 82 85 88 93 97 99 99 96 93 94 97 100 77 54 35 23 21 17 16 53 52 38 68 84 66 90 81 78 92 99 93 97 97 95 97 99 97
88 91 94 95 98 100 100 100 100 100 99 99 99 78 61 39 25 22 18 16 47 97 96 91 100 100 94 96 96 94 96 96 97 97 97 97 97 94
91 94 96 98 100 99 98 100 100 100 99 100 98 75 58 42 28 22 16 16 23 46 90 89 100 96 94 95 96 96 96 97 96 96 97 96 96 93
95 94 96 98 99 99 96 94 92 95 100 100 95 69 56 42 30 24 18 17 25 50 100 97 95 96 97 96 96 96 97 97 96 95 95 96 97 96

GFSNE_700_rhum_111.txt.gz
RH
99 100 100 100 99 100 98 100 99 100 95 100 97 98 99 100 98 96 99 100 98 99 100 100 100 100 98 100 99 100 98 99 100 98 100 100 98 93
24 77 99 99 99 99 99 100 99 97 100 99 100 100 100 99 100 100 99 100 100 99 100 100 100 100 99 99 98 98 100 95 100 98 100 100 98 96
11 11 17 66 98 99 99 99 99 99 99 100 100 100 99 100 99 99 100 99 100 100 100 100 100 100 99 99 99 100 93 95 100 99 98 100 100 100
9 10 11 12 11 10 16 39 98 99 99 99 99 100 100 98 99 100 100 100 100 99 100 100 100 100 100 97 93 95 99 99 98 100 99 99 100 99
4 4 4 4 5 8 11 12 12 23 81 94 100 99 100 100 100 100 99 99 100 100 100 100 100 99 100 100 99 100 100 100 100 99 100 99 99 97
8 7 6 5 5 4 4 4 6 10 12 12 15 21 72 95 99 99 99 99 99 100 100 100 100 100 100 100 100 100 100 100 100 100 100 99 100 100
13 11 9 8 7 6 5 4 4 4 4 4 8 12 13 17 43 93 99 99 99 100 100 100 99 99 100 100 99 100 96 95 100 100 99 100 100 100
15 10 9 8 8 8 7 6 6 5 5 4 4 4 5 9 14 19 26 51 96 99 99 99 100 100 100 99 98 92 93 93 94 99 100 100 100 100
8 8 8 8 8 8 8 8 8 8 7 6 5 5 4 4 4 6 10 15 20 34 62 70 65 82 98 98 100 97 93 98 100 100 100 100 100 99
8 8 8 8 8 8 8 8 8 10 9 9 8 7 6 6 5 4 4 4 6 10 14 20 37 45 46 57 99 100 99 99 100 100 100 100 100 98
8 10 10 10 12 13 15 13 10 11 13 12 11 10 10 8 7 6 6 4 4 4 4 7 10 17 36 44 52 73 98 100 99 99 100 100 100 100
8 8 9 12 15 20 28 30 22 16 14 15 18 17 16 14 13 12 9 8 7 5 5 4 4 6 12 23 44 52 96 99 99 98 99 100 99 99
11 12 15 15 15 20 27 34 46 44 24 16 15 15 17 17 20 20 18 16 11 9 7 6 5 4 4 10 18 47 64 85 99 99 100 99 100 100
19 24 26 24 24 25 28 36 46 63 68 48 24 17 16 16 16 19 23 24 22 17 14 12 8 6 5 4 10 17 44 56 77 96 99 99 100 99
28 36 39 40 41 40 41 50 58 63 70 79 79 59 40 22 20 19 21 25 29 29 25 18 14 11 7 5 5 9 22 48 57 66 98 99 99 99
31 41 43 44 48 52 56 63 71 77 83 94 100 100 92 66 51 44 32 33 36 36 32 26 20 17 13 7 5 5 12 35 54 82 99 92 98 98
39 47 53 54 53 54 58 68 75 79 84 95 100 100 94 91 81 66 54 48 44 41 36 26 19 17 15 10 6 6 17 35 29 71 98 100 89 98
51 57 60 63 63 63 65 70 82 87 89 91 94 99 98 94 89 64 53 44 38 28 22 18 14 12 12 11 7 6 13 72 69 60 97 91 95 99
63 67 70 73 74 78 78 79 83 93 97 96 94 96 95 94 92 60 42 26 21 18 16 15 14 14 12 9 10 11 9 38 96 100 72 95 87 86
71 76 78 81 83 85 88 88 90 93 98 97 95 99 100 95 80 61 34 23 22 20 25 61 35 31 38 24 32 52 58 36 56 84 100 86 82 92
75 79 82 84 86 89 90 90 91 90 98 98 96 99 100 97 75 53 31 24 21 19 26 92 100 98 92 95 48 80 100 75 77 96 85 98 84 100
75 79 83 89 93 95 95 94 90 88 86 88 96 99 100 92 67 50 35 26 22 18 20 51 93 100 100 100 100 73 80 95 96 83 96 98 91 92
80 76 81 85 92 96 97 97 97 92 91 92 97 97 98 76 59 51 36 28 21 20 32 58 99 100 97 100 100 100 76 94 96 95 96 99 94 95

GFSNE_700_rhum_117.txt.gz
RH
15 15 14 14 13 12 12 12 12 12 10 29 90 99 100 100 95 100 97 95 86 87 91 87 93 98 98 96 95 100 99 99 100 99 99 98 100 100
14 14 14 13 12 12 11 10 9 8 10 12 73 98 100 100 100 100 91 100 97 94 98 96 98 100 94 99 99 100 99 99 100 100 99 99 100 100
14 13 12 11 10 9 8 7 6 6 5 5 10 58 93 99 99 100 100 100 100 100 99 100 100 100 100 100 99 100 98 100 98 100 100 100 99 100
19 17 16 15 15 15 15 15 14 12 10 8 5 5 26 73 91 97 100 100 100 100 99 100 100 100 100 100 100 100 99 99 99 100 100 98 100 100
40 39 37 36 35 34 30 27 23 19 16 15 17 11 5 4 22 52 63 99 100 99 100 100 100 100 100 100 100 99 97 99 100 99 99 98 99 98
34 32 28 23 19 15 14 13 14 14 12 11 11 11 11 9 5 4 7 79 99 99 99 99 100 99 99 99 100 100 100 100 98 100 99 99 99 100
12 10 9 8 8 8 7 7 7 7 7 7 7 7 8 8 7 6 5 5 26 91 98 99 99 99 100 99 100 100 100 100 100 99 98 99 99 98
9 8 8 8 8 8 8 8 7 7 7 7 7 7 6 6 6 7 7 6 4 4 23 59 96 99 99 99 100 100 99 100 100 100 99 98 98 100
10 12 15 18 17 14 10 8 7 7 6 6 6 6 5 6 6 6 6 7 6 5 4 5 10 54 98 99 99 100 100 100 100 100 99 100 100 100
19 24 28 30 30 23 13 8 6 6 7 6 6 6 6 6 6 6 6 7 7 7 6 5 4 6 18 78 99 99 99 99 100 100 98 100 100 100
29 34 34 33 30 22 14 9 7 6 8 9 11 11 11 12 11 8 10 10 9 8 8 8 6 4 4 5 11 68 98 99 99 99 98 99 99 99
35 38 38 32 26 20 14 12 10 8 9 12 17 20 21 20 19 17 15 17 18 12 10 9 10 7 6 4 4 5 10 85 99 99 97 100 99 100
38 42 40 35 32 26 17 12 13 13 14 21 24 26 24 26 28 25 21 24 32 28 17 13 10 12 10 7 6 4 4 9 37 96 96 100 99 99
42 46 46 43 38 28 20 20 26 33 35 36 36 37 38 35 36 37 33 39 43 47 35 18 15 13 12 11 8 7 5 5 16 47 92 98 99 100
52 51 53 51 47 35 26 31 39 47 50 51 51 49 49 48 46 47 49 55 56 60 68 39 19 16 15 13 10 8 7 6 6 18 67 91 98 99
54 55 59 60 59 43 32 40 50 54 58 60 59 57 58 58 59 64 57 60 62 65 80 80 43 23 16 16 16 11 8 7 8 6 22 73 99 98
54 55 60 64 66 50 40 46 50 54 60 65 67 67 67 67 70 76 73 68 72 70 67 76 77 48 27 20 19 17 12 9 8 8 8 42 100 99
58 60 64 67 70 64 43 45 48 50 60 68 72 76 74 76 77 79 83 83 85 87 83 84 75 66 52 37 32 24 20 15 11 10 7 6 30 100
65 67 70 73 76 79 67 57 52 60 71 79 83 85 84 84 88 84 85 90 92 99 96 89 59 47 45 48 37 33 22 22 17 13 11 8 6 23
74 76 78 81 85 86 90 90 80 81 91 93 92 92 92 88 90 90 92 96 94 96 94 91 65 47 38 38 35 32 30 25 22 18 15 13 9 7
81 84 84 86 90 93 95 95 95 100 99 99 98 96 96 92 87 94 99 99 91 94 92 75 62 48 38 69 41 32 28 23 22 20 18 16 13 9
88 88 91 94 97 98 96 94 96 100 100 100 100 98 99 96 89 90 97 95 89 92 81 56 48 40 33 57 68 59 50 37 23 19 18 17 15 11
90 90 95 98 100 99 99 98 100 100 100 100 100 96 100 96 93 94 94 95 92 86 75 52 45 43 36 31 51 86 82 83 54 29 21 15 16 12

GFSNE_700_rhum_120.txt.gz
RH
15 15 14 14 14 13 13 11 10 11 12 10 10 9 9 12 38 100 100 99 99 100 96 99 89 74 73 76 79 84 83 88 88 100 92 98 99 99
25 22 20 17 15 13 12 11 10 10 10 10 9 8 7 6 10 53 98 100 100 100 100 100 100 92 83 86 78 79 94 100 97 99 92 98 100 100
38 39 39 38 36 33 31 29 27 26 25 24 22 22 20 15 7 5 9 67 99 99 99 99 100 100 98 97 89 90 84 93 100 99 99 99 100 97
41 41 41 41 40 39 38 36 36 36 36 37 33 30 26 23 20 16 6 5 12 91 98 99 100 100 100 100 99 100 95 98 99 100 99 100 100 98
32 27 23 19 17 13 12 11 10 10 9 9 10 10 12 16 18 16 16 12 5 6 25 97 99 99 100 100 100 99 100 98 100 100 100 99 100 98
22 16 12 9 8 7 7 7 6 6 6 6 6 6 6 6 6 7 11 11 11 7 5 7 80 98 99 98 100 100 98 100 100 99 100 100 100 100
10 8 7 7 8 9 11 13 14 12 10 8 8 7 6 6 6 6 6 6 6 9 9 5 4 79 98 99 99 100 100 99 100 100 100 100 100 99
8 8 11 15 18 23 26 28 27 22 14 10 8 8 9 7 7 7 7 7 6 6 6 9 7 5 72 98 98 100 99 99 100 100 100 100 99 99
11 15 20 25 28 30 30 28 25 20 14 10 10 10 9 6 6 5 5 6 6 6 5 5 6 7 5 15 93 98 99 99 99 100 100 99 100 100
14 18 22 27 33 31 30 28 24 20 16 14 12 10 9 8 8 7 6 6 5 5 5 5 5 6 8 6 7 83 91 99 99 99 99 100 100 100
22 28 32 34 35 38 37 34 32 29 21 16 12 11 12 15 18 16 15 12 8 7 8 8 5 5 6 7 6 5 9 52 98 99 99 100 100 100
30 40 41 43 44 45 43 42 40 36 34 31 16 14 23 26 29 31 29 25 23 17 15 13 11 9 6 7 8 7 5 4 34 98 99 99 100 100
37 42 48 49 48 48 49 50 47 45 40 25 14 16 22 30 36 40 43 43 36 30 28 22 16 15 17 8 9 10 8 5 4 6 75 98 99 99
41 45 49 51 49 48 50 52 52 49 34 20 18 21 25 32 40 47 51 52 50 43 34 34 33 33 22 17 10 9 10 9 6 4 6 44 98 99
48 51 56 54 52 53 56 58 58 48 31 21 21 20 23 32 42 48 53 54 53 53 52 49 50 50 44 31 20 12 10 12 10 6 4 11 77 98
54 59 60 58 57 58 60 63 65 55 37 30 26 25 27 30 42 55 56 58 57 58 67 69 65 63 48 44 41 22 14 10 12 9 6 10 34 84
57 62 62 64 64 66 68 71 73 74 59 49 48 47 47 46 53 66 66 67 67 63 61 74 82 74 68 57 51 38 17 14 12 15 9 8 44 94
64 68 70 70 71 72 75 77 79 81 85 85 82 82 78 69 70 75 76 78 76 74 73 79 78 79 87 75 64 48 22 16 16 16 14 8 13 74
72 76 78 79 81 83 86 87 84 86 90 93 95 98 97 94 91 88 82 82 84 81 87 92 88 88 81 77 65 59 32 26 21 20 19 13 9 18
77 82 83 84 88 92 93 93 90 89 94 99 99 98 100 98 96 96 92 84 84 85 83 86 97 98 86 73 63 51 49 37 29 24 25 19 13 10
85 87 86 89 94 95 94 92 89 93 100 98 96 94 99 100 99 100 94 87 87 89 80 83 100 100 86 63 48 46 42 45 36 31 26 25 19 12
87 86 89 94 96 93 91 89 89 96 100 100 99 99 100 100 100 94 91 86 90 93 92 95 100 99 72 43 31 28 30 64 55 42 28 25 22 17
89 89 92 93 92 91 90 90 90 94 100 100 98 98 100 100 95 90 85 87 88 88 84 79 83 86 59 51 39 27 24 38 81 68 44 28 23 20

GFSNE_700_rhum_123.txt.gz
RH
30 31 31 30 28 26 24 23 23 24 22 19 17 15 13 12 10 9 8 7 10 26 94 100 98 84 92 86 76 68 70 75 78 84 90 90 87 86
31 33 36 37 38 38 39 39 39 38 38 37 36 35 34 30 25 21 19 16 8 8 34 39 97 99 94 96 91 73 72 80 87 75 81 93 92 88
33 34 34 33 33 32 30 29 28 26 24 21 18 18 21 26 30 34 33 29 24 21 15 6 21 96 100 98 95 100 88 85 88 85 77 85 86 94
32 31 29 26 24 20 17 13 11 9 8 7 6 6 6 6 6 7 10 13 19 23 23 21 11 7 54 99 100 97 100 99 91 80 93 91 98 96
29 27 22 16 11 8 7 6 6 6 8 9 10 10 9 8 8 7 7 6 6 6 8 17 19 15 6 80 98 100 98 99 99 99 93 98 99 99
24 18 12 8 7 7 8 11 14 16 19 18 17 15 13 10 9 10 10 9 8 7 6 6 6 11 14 6 72 98 99 99 100 99 99 98 98 99
18 10 7 7 9 13 19 21 21 20 19 18 17 17 16 16 17 19 21 20 17 11 8 7 6 6 6 11 7 61 97 99 100 100 100 100 99 98
11 8 8 10 14 18 20 24 26 24 25 26 26 26 26 27 24 20 18 17 17 16 15 11 7 6 6 5 10 8 66 98 99 99 100 100 99 100
9 8 11 14 20 25 29 29 32 35 35 32 30 30 29 25 24 25 28 24 18 10 6 9 7 7 6 5 5 8 8 89 99 98 99 100 100 100
8 10 15 22 30 32 34 38 39 40 40 36 36 35 33 35 34 27 17 11 9 7 7 6 6 6 6 6 5 5 8 10 82 98 99 99 99 99
9 14 21 31 34 38 38 39 38 40 42 42 41 41 40 35 22 14 12 10 8 7 11 15 9 6 6 6 6 5 5 7 15 89 97 98 98 99
11 20 31 36 40 45 46 44 42 42 42 43 46 46 36 22 17 18 20 18 16 11 19 22 17 18 11 8 8 8 6 7 7 23 86 97 98 99
14 28 39 44 48 50 52 52 49 46 44 46 48 47 34 25 24 25 28 29 25 24 32 37 32 28 28 17 9 9 9 9 8 7 21 92 73 98
21 35 42 48 52 54 55 56 56 55 55 53 53 51 40 29 29 29 30 34 36 34 37 47 43 41 37 28 21 15 11 10 11 9 7 13 29 74
33 41 47 53 55 59 62 62 62 61 59 56 56 59 55 41 37 39 40 40 40 46 51 54 56 54 50 40 29 20 16 12 13 11 10 7 7 5
42 46 56 56 61 65 66 70 72 72 70 69 66 69 73 78 71 64 57 54 45 48 66 72 70 64 53 50 41 25 25 16 16 14 10 9 6 4
40 46 56 64 69 73 77 79 79 82 82 80 80 82 86 86 80 86 89 80 73 66 63 78 81 71 66 59 44 37 31 26 24 17 13 11 8 7
39 52 63 68 73 76 79 84 89 88 86 84 87 92 91 86 81 86 93 92 84 80 74 82 80 79 74 71 78 55 48 44 44 24 15 12 11 8
40 59 67 72 78 83 85 86 85 86 86 90 96 100 96 89 90 90 95 91 87 85 80 84 86 88 73 60 63 81 56 58 55 33 19 16 14 11
46 65 72 78 84 87 87 85 82 84 88 92 98 100 97 95 95 96 98 94 90 83 78 84 92 91 86 79 58 62 81 63 59 40 29 21 17 15
60 71 76 81 86 87 85 82 82 82 82 77 88 92 99 100 95 97 98 98 88 79 75 78 89 96 93 81 68 63 53 51 56 48 40 28 24 17
69 76 79 86 88 86 84 82 79 80 60 50 56 72 92 93 95 96 95 87 83 80 76 80 93 90 90 83 55 41 38 40 43 47 47 38 28 25
74 78 82 88 86 86 83 82 79 66 33 24 27 30 45 68 80 84 82 76 72 72 74 68 74 83 81 78 52 40 44 42 38 47 66 46 32 28

GFSNE_700_rhum_126.txt.gz
RH
27 26 27 28 28 29 30 32 33 32 31 31 32 32 32 32 30 29 26 21 16 13 11 9 7 8 13 19 33 71 76 82 73 66 78 90 89 84
28 26 26 27 28 29 29 29 28 27 26 24 24 24 26 26 28 29 31 32 33 33 30 26 22 18 11 10 11 40 72 74 93 94 70 73 83 88
29 27 27 28 28 26 24 20 18 15 12 9 8 7 6 6 7 9 10 10 11 12 15 20 28 31 28 24 19 9 48 74 73 90 89 72 72 81
30 28 27 26 23 18 14 10 8 6 6 7 10 11 12 12 12 10 8 8 7 6 6 6 6 8 11 20 24 22 11 49 82 80 92 96 86 70
32 29 28 23 15 9 7 6 7 10 14 15 14 13 13 13 13 14 14 14 15 15 15 12 10 8 7 6 7 17 20 11 52 81 78 78 98 75
33 31 26 18 10 7 7 10 14 18 18 18 16 15 16 20 22 20 17 17 16 18 17 17 19 19 14 9 7 6 10 15 15 91 99 99 94 82
34 32 24 13 8 7 10 12 15 17 21 20 19 23 26 25 20 16 13 12 11 9 9 9 10 12 14 14 10 8 6 7 11 12 92 98 99 92
36 32 21 11 8 9 13 18 21 23 26 30 30 29 28 25 22 21 18 13 10 10 8 6 6 6 8 13 10 9 7 6 6 10 10 93 99 99
38 31 19 11 9 12 19 27 29 34 36 36 35 34 30 31 26 21 17 14 13 11 9 8 7 6 5 5 8 7 7 7 6 6 10 17 92 99
39 28 16 9 10 16 26 31 34 39 42 41 39 37 37 38 38 36 29 21 17 15 12 10 8 7 6 5 5 6 6 6 7 6 5 9 42 97
40 26 12 10 14 24 31 35 37 41 44 44 45 45 44 44 45 41 37 29 22 19 15 12 11 10 9 7 7 7 8 7 6 6 5 6 9 74
41 22 11 15 24 35 39 40 41 46 47 49 50 50 50 49 50 50 45 35 28 22 19 19 16 18 14 11 9 8 12 13 10 6 5 5 7 22
40 18 12 24 39 44 46 48 51 53 54 56 56 57 57 55 55 59 56 44 36 28 27 30 22 21 23 20 17 14 19 17 13 10 7 5 6 9
36 15 13 32 43 46 52 57 60 61 63 65 66 68 68 65 64 69 75 72 58 48 40 47 36 30 30 23 23 23 27 26 21 14 10 7 7 8
30 12 17 38 42 50 59 66 65 65 68 71 74 77 77 74 76 80 78 78 76 80 79 72 65 52 48 38 37 33 33 27 26 21 15 10 9 9
24 12 26 40 47 58 64 68 70 74 76 76 75 76 77 78 82 86 78 80 76 78 92 98 86 74 58 52 54 40 41 31 23 24 20 14 12 10
19 12 32 38 53 65 71 74 76 78 78 76 76 76 79 85 87 86 87 88 86 82 81 94 94 78 70 65 55 61 50 38 35 26 24 18 17 12
14 15 35 40 61 70 75 78 82 81 78 75 76 79 78 72 71 84 91 90 88 87 85 90 88 78 76 69 70 68 74 60 46 41 37 26 20 15
12 24 36 52 70 76 77 81 81 80 76 75 71 60 41 47 69 82 86 86 86 86 88 92 86 80 73 62 67 74 74 77 58 47 53 46 28 18
13 33 42 67 75 78 82 83 81 79 76 66 39 28 27 24 35 58 72 78 84 87 84 87 84 83 79 70 60 65 88 89 74 53 55 56 39 19
19 37 60 73 79 82 84 84 82 81 75 46 21 18 22 24 31 50 65 80 87 84 74 78 84 81 75 79 67 57 63 88 65 56 54 55 42 25
31 49 72 79 82 84 86 85 84 80 72 38 19 15 18 25 30 41 55 65 69 68 64 65 69 72 73 71 63 52 49 60 51 40 47 50 45 32
38 65 78 83 85 87 87 86 85 80 71 36 18 14 14 19 25 30 41 56 61 57 55 49 52 58 61 70 69 50 45 53 65 58 38 40 45 48

GFSNE_700_rhum_129.txt.gz
RH
23 26 29 28 26 25 24 24 24 24 24 25 25 24 24 24 25 26 28 29 30 31 31 31 30 26 22 16 13 12 9 8 10 14 54 75 73 52
21 24 29 30 28 26 25 24 23 21 21 18 17 17 16 15 15 14 14 13 13 15 17 20 23 27 29 30 30 29 24 18 13 10 9 44 78 78
22 23 27 31 30 27 25 22 17 14 11 8 7 6 6 6 6 6 6 6 6 6 6 6 6 6 6 7 8 10 16 24 28 22 16 10 58 76
26 24 27 32 32 28 24 17 12 8 7 6 8 12 14 14 13 12 12 11 11 10 11 12 13 13 13 13 12 10 6 6 8 20 26 21 16 67
30 26 26 32 34 30 22 14 9 7 8 10 13 14 13 14 13 13 13 16 17 16 14 9 7 7 6 5 5 5 8 12 9 6 9 22 20 15
34 31 28 33 35 31 20 13 8 8 11 13 14 16 15 15 16 17 18 16 11 13 11 9 8 8 7 7 7 6 5 5 6 12 8 6 14 16
40 34 30 35 36 29 20 11 8 10 15 20 21 20 23 26 26 25 21 12 10 10 9 10 10 10 9 8 7 7 7 7 6 5 11 11 6 11
45 42 34 36 38 30 17 10 10 14 21 27 26 26 29 31 33 31 27 21 13 17 13 11 12 11 10 10 10 9 9 8 7 6 5 10 12 6
54 52 40 39 38 27 15 9 14 22 31 33 31 34 35 39 38 36 34 30 25 22 21 15 17 13 12 12 11 10 10 10 9 7 6 6 11 10
65 52 52 43 39 25 12 11 16 28 37 39 38 41 44 46 46 44 41 38 35 35 36 27 25 21 16 14 13 10 10 10 8 8 6 5 8 10
73 61 64 44 37 21 11 15 26 35 41 40 46 49 51 52 51 49 49 47 44 44 44 41 34 30 27 22 16 14 14 13 11 9 7 6 5 8
78 76 64 47 34 14 14 26 36 43 43 48 53 56 58 60 62 64 64 61 57 51 54 56 52 50 40 32 24 19 18 17 16 13 11 8 6 6
87 87 73 51 33 13 23 38 44 46 50 54 57 60 62 65 67 69 71 69 65 62 66 70 59 60 63 44 31 27 24 22 22 20 17 14 10 8
90 92 81 52 24 13 32 42 50 55 59 62 64 66 66 63 61 63 65 65 67 64 58 75 68 62 63 53 44 41 38 31 28 26 24 23 19 14
94 93 83 47 17 15 37 44 57 63 66 68 69 66 62 57 53 47 32 29 37 59 72 81 82 72 77 72 63 56 49 41 40 38 33 27 24 20
96 90 84 33 14 22 38 48 63 68 72 72 69 63 57 48 30 16 14 20 27 44 70 84 87 86 77 78 77 65 62 59 47 46 39 26 24 24
95 90 77 23 14 32 39 59 69 74 75 73 65 57 45 27 14 14 17 20 28 44 57 74 84 89 86 84 78 75 68 63 62 58 50 35 27 26
94 93 49 16 17 36 49 68 76 79 79 74 64 57 35 16 12 19 20 21 30 44 56 72 79 79 78 77 83 78 76 68 65 66 58 46 28 30
94 86 28 14 29 41 66 75 80 82 80 74 67 57 28 14 13 21 26 31 39 52 63 76 82 83 71 59 67 81 75 77 79 69 62 54 43 29
94 58 19 17 36 60 75 80 82 83 80 73 67 53 24 14 11 14 24 29 38 50 57 66 73 74 68 61 54 60 84 79 78 60 51 53 54 45
91 34 15 29 50 74 82 84 84 85 78 71 69 53 27 16 12 13 16 24 33 43 51 58 67 69 65 61 48 48 53 75 81 55 41 48 49 51
63 21 19 39 67 81 84 85 87 84 80 74 72 60 34 18 14 14 15 17 22 31 36 50 58 58 56 57 49 45 43 55 66 52 44 48 48 48
40 16 30 55 76 76 77 85 87 83 81 75 70 60 40 19 18 17 17 18 20 23 30 33 44 56 58 66 66 58 54 67 60 48 65 100 58 43

GFSNE_700_rhum_132.txt.gz
RH
22 21 22 22 23 27 30 30 28 24 21 20 20 20 19 18 18 19 19 19 20 20 21 22 23 24 26 26 27 29 29 28 27 21 14 11 10 14
26 24 24 24 24 26 29 32 30 26 22 17 15 14 12 10 9 8 8 7 7 7 7 8 9 9 9 10 11 12 14 16 19 25 27 27 19 11
29 28 27 27 27 29 29 32 32 27 23 17 13 10 7 7 8 9 8 8 8 9 9 10 9 8 8 8 8 8 8 8 7 6 8 16 25 26
32 32 32 32 32 30 31 34 34 29 22 19 12 8 8 12 15 14 14 12 11 10 10 12 14 16 16 14 11 7 5 5 5 5 7 8 6 12
33 36 37 38 38 37 34 35 36 30 22 16 10 8 10 12 15 17 17 17 17 18 19 16 12 10 11 9 7 7 7 7 8 8 8 6 5 6
32 39 41 43 45 46 38 38 37 30 21 14 9 9 13 18 20 20 22 24 24 24 23 18 14 12 10 9 9 9 8 8 9 10 11 10 9 7
30 41 44 48 55 53 49 42 38 29 18 11 10 14 18 23 25 25 24 24 24 25 25 25 20 16 16 15 12 12 11 10 9 10 12 12 12 11
31 36 46 53 63 57 58 45 39 28 16 11 14 20 27 31 30 27 28 29 26 31 29 29 30 27 24 21 19 17 14 12 12 12 13 15 14 14
35 38 48 59 69 67 67 46 40 23 13 14 20 27 31 35 34 36 38 38 36 36 34 29 36 32 32 30 28 27 23 19 15 13 13 15 17 16
40 36 48 68 75 77 71 52 40 20 15 25 35 41 41 41 45 47 44 44 41 44 48 40 46 42 43 45 45 43 38 32 25 19 15 14 14 17
45 36 52 77 85 88 81 61 51 17 19 32 41 45 49 52 56 53 52 49 45 42 44 31 23 17 18 20 30 41 46 46 39 28 20 16 15 15
50 37 56 78 78 80 88 78 42 15 22 37 46 53 59 62 62 62 56 46 32 19 20 12 7 8 6 6 10 14 23 34 42 37 26 21 18 16
47 38 56 75 87 93 92 82 28 15 30 40 49 58 64 65 65 58 51 36 21 12 14 11 9 10 16 13 12 26 39 42 54 52 46 34 26 23
38 41 65 90 96 96 93 70 16 21 37 45 57 65 68 67 60 51 36 19 12 9 12 13 13 15 20 20 25 30 43 51 63 62 56 46 37 30
39 55 87 89 96 97 92 35 16 29 39 55 67 72 72 65 53 35 17 13 10 14 16 18 22 26 34 41 41 43 54 53 60 68 60 54 46 40
86 94 88 94 96 95 76 19 19 37 46 68 74 76 74 64 50 30 16 12 11 18 22 26 32 39 42 56 64 54 62 58 60 63 62 53 50 44
95 94 96 96 97 95 39 17 31 40 63 74 77 76 70 59 40 20 15 14 11 17 24 28 36 44 51 57 55 60 58 57 58 59 64 53 46 45
95 96 95 97 97 81 20 19 38 58 76 80 81 77 70 59 39 19 14 14 11 11 16 26 33 39 43 38 61 59 56 54 58 61 67 63 42 46
95 97 95 99 95 47 16 29 47 75 82 85 83 79 71 60 49 21 12 13 13 12 11 17 28 45 41 27 39 52 60 62 57 50 59 55 44 41
96 95 96 98 87 22 19 37 66 82 86 86 84 79 74 64 52 26 14 13 14 14 14 16 27 44 51 49 30 32 57 54 60 52 52 46 37 38
96 95 99 97 52 16 28 54 78 84 87 88 85 81 78 64 45 29 21 17 17 18 20 32 44 51 56 59 49 46 52 66 75 66 56 46 30 30
96 95 99 88 21 19 42 70 80 78 89 91 86 85 80 64 43 29 26 24 23 22 21 34 94 98 98 97 93 85 74 71 83 97 94 78 59 38
96 97 97 47 16 30 59 71 55 70 92 91 88 89 80 66 50 43 48 55 54 49 38 76 97 98 98 99 99 97 96 95 95 92 96 100 98 68